Time,TemperatureF,DewpointF,PressureIn,WindDirection,WindDirectionDegrees,WindSpeedMPH,WindSpeedGustMPH,Humidity,HourlyPrecipIn,Conditions,Clouds,dailyrainin,SoftwareType,DateUTC
2013-04-27 00:00:00,52.4,39.8,30.39,SSW,207,0.0,0.0,62,0.00,,,0.00,Wunderground v.1.15,2013-04-27 04:00:00,
2013-04-27 01:20:00,52.1,43.7,30.36,SSW,207,0.0,0.0,73,0.00,,,0.00,Wunderground v.1.15,2013-04-27 05:20:00,
2013-04-27 01:37:00,51.8,44.1,30.36,SSW,207,0.0,0.0,75,0.00,,,0.00,Wunderground v.1.15,2013-04-27 05:37:00,
2013-04-27 01:39:00,51.8,44.1,30.36,SSW,207,0.0,0.0,75,0.00,,,0.00,Wunderground v.1.15,2013-04-27 05:39:00,
2013-04-27 01:44:00,51.6,43.6,30.36,SSW,202,0.0,0.0,74,0.00,,,0.00,Wunderground v.1.15,2013-04-27 05:44:00,
2013-04-27 01:48:00,51.5,43.1,30.37,SSW,200,0.0,1.0,73,0.00,,,0.00,Wunderground v.1.15,2013-04-27 05:48:00,
2013-04-27 01:50:00,51.5,43.5,30.37,SSW,200,0.0,1.0,74,0.00,,,0.00,Wunderground v.1.15,2013-04-27 05:50:00,
2013-04-27 01:55:00,51.4,42.7,30.37,SSW,200,0.0,0.0,72,0.00,,,0.00,Wunderground v.1.15,2013-04-27 05:55:00,
2013-04-27 01:57:00,51.4,42.3,30.37,SSW,200,0.0,0.0,71,0.00,,,0.00,Wunderground v.1.15,2013-04-27 05:57:00,
2013-04-27 02:03:00,51.5,42.0,30.37,SSW,200,0.0,0.0,70,0.00,,,0.00,Wunderground v.1.15,2013-04-27 06:03:00,
2013-04-27 02:06:00,51.5,41.7,30.37,SSW,200,0.0,0.0,69,0.00,,,0.00,Wunderground v.1.15,2013-04-27 06:06:00,
2013-04-27 02:08:00,51.5,41.3,30.37,SSW,200,0.0,0.0,68,0.00,,,0.00,Wunderground v.1.15,2013-04-27 06:08:00,
2013-04-27 02:11:00,51.5,41.7,30.38,SSW,200,0.0,0.0,69,0.00,,,0.00,Wunderground v.1.15,2013-04-27 06:11:00,
2013-04-27 02:14:00,51.6,41.8,30.38,SSW,200,0.0,0.0,69,0.00,,,0.00,Wunderground v.1.15,2013-04-27 06:14:00,
2013-04-27 02:17:00,51.6,41.8,30.38,SSW,200,0.0,0.0,69,0.00,,,0.00,Wunderground v.1.15,2013-04-27 06:17:00,
2013-04-27 02:20:00,51.6,42.1,30.38,SSW,213,0.0,1.0,70,0.00,,,0.00,Wunderground v.1.15,2013-04-27 06:20:00,
2013-04-27 02:23:00,51.6,42.9,30.38,SSW,213,0.0,1.0,72,0.00,,,0.00,Wunderground v.1.15,2013-04-27 06:23:00,
2013-04-27 02:24:00,51.6,42.5,30.38,SSW,213,0.0,0.0,71,0.00,,,0.00,Wunderground v.1.15,2013-04-27 06:24:00,
2013-04-27 02:25:00,51.6,42.5,30.38,SSW,213,0.0,0.0,71,0.00,,,0.00,Wunderground v.1.15,2013-04-27 06:25:00,
2013-04-27 02:26:00,51.7,43.0,30.38,SSW,213,0.0,0.0,72,0.00,,,0.00,Wunderground v.1.15,2013-04-27 06:26:00,
2013-04-27 02:28:00,51.7,43.3,30.38,SSW,213,0.0,0.0,73,0.00,,,0.00,Wunderground v.1.15,2013-04-27 06:28:00,
2013-04-27 02:32:00,51.6,42.1,30.38,SSW,213,0.0,0.0,70,0.00,,,0.00,Wunderground v.1.15,2013-04-27 06:32:00,
2013-04-27 02:37:00,51.5,41.7,30.38,SSW,213,0.0,0.0,69,0.00,,,0.00,Wunderground v.1.15,2013-04-27 06:37:00,
2013-04-27 02:38:00,51.5,41.7,30.38,SSW,213,0.0,0.0,69,0.00,,,0.00,Wunderground v.1.15,2013-04-27 06:38:00,
2013-04-27 02:40:00,51.5,41.3,30.38,SSW,213,0.0,0.0,68,0.00,,,0.00,Wunderground v.1.15,2013-04-27 06:40:00,
2013-04-27 02:42:00,51.5,41.3,30.37,SSW,213,0.0,0.0,68,0.00,,,0.00,Wunderground v.1.15,2013-04-27 06:42:00,
2013-04-27 02:44:00,51.4,41.6,30.37,SSW,213,0.0,0.0,69,0.00,,,0.00,Wunderground v.1.15,2013-04-27 06:44:00,
2013-04-27 02:48:00,51.5,41.3,30.37,SSW,213,0.0,0.0,68,0.00,,,0.00,Wunderground v.1.15,2013-04-27 06:48:00,
2013-04-27 02:49:00,51.5,42.0,30.37,SSW,213,0.0,0.0,70,0.00,,,0.00,Wunderground v.1.15,2013-04-27 06:49:00,
2013-04-27 02:50:00,51.5,42.0,30.37,SSW,213,0.0,0.0,70,0.00,,,0.00,Wunderground v.1.15,2013-04-27 06:50:00,
2013-04-27 02:52:00,51.6,41.8,30.37,SSW,213,0.0,0.0,69,0.00,,,0.00,Wunderground v.1.15,2013-04-27 06:52:00,
2013-04-27 02:54:00,51.6,41.8,30.37,SSW,213,0.0,0.0,69,0.00,,,0.00,Wunderground v.1.15,2013-04-27 06:54:00,
2013-04-27 02:55:00,51.7,41.9,30.37,SSW,213,0.0,0.0,69,0.00,,,0.00,Wunderground v.1.15,2013-04-27 06:55:00,
2013-04-27 02:56:00,51.7,42.2,30.37,SSW,213,0.0,0.0,70,0.00,,,0.00,Wunderground v.1.15,2013-04-27 06:56:00,
2013-04-27 02:57:00,51.7,42.2,30.37,SSW,213,0.0,0.0,70,0.00,,,0.00,Wunderground v.1.15,2013-04-27 06:57:00,
2013-04-27 03:00:00,51.7,42.2,30.37,SSW,213,0.0,0.0,70,0.00,,,0.00,Wunderground v.1.15,2013-04-27 07:00:00,
2013-04-27 03:02:00,51.7,42.6,30.37,SSW,213,0.0,0.0,71,0.00,,,0.00,Wunderground v.1.15,2013-04-27 07:02:00,
2013-04-27 03:05:00,51.6,42.5,30.37,SSW,213,0.0,0.0,71,0.00,,,0.00,Wunderground v.1.15,2013-04-27 07:05:00,
2013-04-27 03:07:00,51.5,42.4,30.37,SSW,213,0.0,0.0,71,0.00,,,0.00,Wunderground v.1.15,2013-04-27 07:07:00,
2013-04-27 03:10:00,51.5,42.4,30.36,SSW,213,0.0,0.0,71,0.00,,,0.00,Wunderground v.1.15,2013-04-27 07:10:00,
2013-04-27 03:11:00,51.5,42.4,30.35,SSW,213,0.0,0.0,71,0.00,,,0.00,Wunderground v.1.15,2013-04-27 07:11:00,
2013-04-27 03:13:00,51.5,43.1,30.35,SSW,213,0.0,0.0,73,0.00,,,0.00,Wunderground v.1.15,2013-04-27 07:13:00,
2013-04-27 03:18:00,51.4,42.3,30.34,SSW,213,0.0,1.0,71,0.00,,,0.00,Wunderground v.1.15,2013-04-27 07:18:00,
2013-04-27 03:19:00,51.4,42.3,30.34,SSW,213,0.0,1.0,71,0.00,,,0.00,Wunderground v.1.15,2013-04-27 07:19:00,
2013-04-27 03:22:00,51.3,42.6,30.34,SSW,213,0.0,1.0,72,0.00,,,0.00,Wunderground v.1.15,2013-04-27 07:22:00,
2013-04-27 03:26:00,51.2,42.1,30.34,SSW,213,0.0,0.0,71,0.00,,,0.00,Wunderground v.1.15,2013-04-27 07:26:00,
2013-04-27 03:28:00,51.2,42.1,30.35,SSW,213,0.0,0.0,71,0.00,,,0.00,Wunderground v.1.15,2013-04-27 07:28:00,
2013-04-27 03:31:00,51.1,42.0,30.35,SSW,213,0.0,0.0,71,0.00,,,0.00,Wunderground v.1.15,2013-04-27 07:31:00,
2013-04-27 03:32:00,51.1,42.4,30.35,SSW,213,0.0,0.0,72,0.00,,,0.00,Wunderground v.1.15,2013-04-27 07:32:00,
2013-04-27 03:34:00,51.0,42.6,30.35,SSW,213,0.0,0.0,73,0.00,,,0.00,Wunderground v.1.15,2013-04-27 07:34:00,
2013-04-27 03:35:00,50.9,42.6,30.36,SSW,213,0.0,0.0,73,0.00,,,0.00,Wunderground v.1.15,2013-04-27 07:35:00,
2013-04-27 03:36:00,50.9,42.2,30.36,SSW,213,0.0,0.0,72,0.00,,,0.00,Wunderground v.1.15,2013-04-27 07:36:00,
2013-04-27 03:41:00,50.8,43.2,30.36,SSW,213,0.0,0.0,75,0.00,,,0.00,Wunderground v.1.15,2013-04-27 07:41:00,
2013-04-27 03:42:00,50.8,43.2,30.35,SSW,213,0.0,0.0,75,0.00,,,0.00,Wunderground v.1.15,2013-04-27 07:42:00,
2013-04-27 03:44:00,50.7,43.1,30.35,SSW,213,0.0,0.0,75,0.00,,,0.00,Wunderground v.1.15,2013-04-27 07:44:00,
2013-04-27 03:46:00,50.7,43.1,30.35,SSW,213,0.0,0.0,75,0.00,,,0.00,Wunderground v.1.15,2013-04-27 07:46:00,
2013-04-27 03:49:00,50.6,43.3,30.35,SSW,213,0.0,0.0,76,0.00,,,0.00,Wunderground v.1.15,2013-04-27 07:49:00,
2013-04-27 03:51:00,50.6,43.7,30.35,SSW,201,0.0,2.0,77,0.00,,,0.00,Wunderground v.1.15,2013-04-27 07:51:00,
2013-04-27 03:54:00,50.5,43.6,30.35,SSW,201,0.0,0.0,77,0.00,,,0.00,Wunderground v.1.15,2013-04-27 07:54:00,
2013-04-27 03:57:00,50.5,43.6,30.35,SSW,201,0.0,0.0,77,0.00,,,0.00,Wunderground v.1.15,2013-04-27 07:57:00,
2013-04-27 03:59:00,50.4,43.5,30.34,SSW,201,0.0,0.0,77,0.00,,,0.00,Wunderground v.1.15,2013-04-27 07:59:00,
2013-04-27 04:00:00,50.5,43.6,30.34,SSW,201,0.0,0.0,77,0.00,,,0.00,Wunderground v.1.15,2013-04-27 08:00:00,
2013-04-27 04:02:00,50.5,43.6,30.34,SSW,201,0.0,1.0,77,0.00,,,0.00,Wunderground v.1.15,2013-04-27 08:02:00,
2013-04-27 04:05:00,50.5,43.2,30.34,SSW,201,0.0,0.0,76,0.00,,,0.00,Wunderground v.1.15,2013-04-27 08:05:00,
2013-04-27 04:06:00,50.5,43.6,30.34,SSW,201,0.0,0.0,77,0.00,,,0.00,Wunderground v.1.15,2013-04-27 08:06:00,
2013-04-27 04:10:00,50.6,43.3,30.34,SSW,201,0.0,0.0,76,0.00,,,0.00,Wunderground v.1.15,2013-04-27 08:10:00,
2013-04-27 04:11:00,50.6,43.3,30.34,SSW,201,0.0,0.0,76,0.00,,,0.00,Wunderground v.1.15,2013-04-27 08:11:00,
2013-04-27 04:12:00,50.6,43.3,30.33,SSW,201,0.0,0.0,76,0.00,,,0.00,Wunderground v.1.15,2013-04-27 08:12:00,
2013-04-27 04:13:00,50.7,43.8,30.33,SSW,201,0.0,0.0,77,0.00,,,0.00,Wunderground v.1.15,2013-04-27 08:13:00,
2013-04-27 04:16:00,50.7,43.8,30.33,SSW,201,0.0,0.0,77,0.00,,,0.00,Wunderground v.1.15,2013-04-27 08:16:00,
2013-04-27 04:17:00,50.7,43.8,30.33,SSW,201,0.0,0.0,77,0.00,,,0.00,Wunderground v.1.15,2013-04-27 08:17:00,
2013-04-27 04:18:00,50.8,43.8,30.33,SSW,201,0.0,0.0,77,0.00,,,0.00,Wunderground v.1.15,2013-04-27 08:18:00,
2013-04-27 04:19:00,50.8,44.2,30.33,SSW,201,0.0,0.0,78,0.00,,,0.00,Wunderground v.1.15,2013-04-27 08:19:00,
2013-04-27 04:21:00,50.9,44.3,30.33,SSW,201,0.0,0.0,78,0.00,,,0.00,Wunderground v.1.15,2013-04-27 08:21:00,
2013-04-27 04:23:00,50.9,44.3,30.33,SSW,201,0.0,0.0,78,0.00,,,0.00,Wunderground v.1.15,2013-04-27 08:23:00,
2013-04-27 04:25:00,50.9,44.3,30.32,SSW,201,0.0,0.0,78,0.00,,,0.00,Wunderground v.1.15,2013-04-27 08:25:00,
2013-04-27 04:27:00,50.9,44.3,30.33,SSW,201,0.0,0.0,78,0.00,,,0.00,Wunderground v.1.15,2013-04-27 08:27:00,
2013-04-27 04:29:00,50.8,43.8,30.33,SSW,201,0.0,0.0,77,0.00,,,0.00,Wunderground v.1.15,2013-04-27 08:29:00,
2013-04-27 04:30:00,50.8,43.8,30.32,SSW,201,0.0,0.0,77,0.00,,,0.00,Wunderground v.1.15,2013-04-27 08:30:00,
2013-04-27 04:32:00,50.8,43.8,30.32,SSW,201,0.0,0.0,77,0.00,,,0.00,Wunderground v.1.15,2013-04-27 08:32:00,
2013-04-27 04:34:00,50.8,43.8,30.33,SSW,201,0.0,0.0,77,0.00,,,0.00,Wunderground v.1.15,2013-04-27 08:34:00,
2013-04-27 04:35:00,50.8,43.8,30.33,SSW,201,0.0,0.0,77,0.00,,,0.00,Wunderground v.1.15,2013-04-27 08:35:00,
2013-04-27 04:38:00,50.8,43.5,30.33,SSW,201,0.0,0.0,76,0.00,,,0.00,Wunderground v.1.15,2013-04-27 08:38:00,
2013-04-27 04:39:00,50.8,43.5,30.33,SSW,201,0.0,0.0,76,0.00,,,0.00,Wunderground v.1.15,2013-04-27 08:39:00,
2013-04-27 04:40:00,50.9,43.6,30.33,SSW,201,0.0,0.0,76,0.00,,,0.00,Wunderground v.1.15,2013-04-27 08:40:00,
2013-04-27 04:41:00,50.9,43.6,30.33,SSW,201,0.0,0.0,76,0.00,,,0.00,Wunderground v.1.15,2013-04-27 08:41:00,
2013-04-27 04:42:00,50.9,43.6,30.33,SSW,201,0.0,0.0,76,0.00,,,0.00,Wunderground v.1.15,2013-04-27 08:42:00,
2013-04-27 04:43:00,50.9,43.6,30.33,SSW,201,0.0,0.0,76,0.00,,,0.00,Wunderground v.1.15,2013-04-27 08:43:00,
2013-04-27 04:46:00,50.9,43.6,30.33,SSW,201,0.0,0.0,76,0.00,,,0.00,Wunderground v.1.15,2013-04-27 08:46:00,
2013-04-27 04:47:00,50.9,43.6,30.33,SSW,201,0.0,0.0,76,0.00,,,0.00,Wunderground v.1.15,2013-04-27 08:47:00,
2013-04-27 04:48:00,50.9,43.6,30.33,SSW,201,0.0,0.0,76,0.00,,,0.00,Wunderground v.1.15,2013-04-27 08:48:00,
2013-04-27 04:53:00,51.0,44.0,30.32,SSW,201,0.0,0.0,77,0.00,,,0.00,Wunderground v.1.15,2013-04-27 08:53:00,
2013-04-27 04:54:00,50.9,44.3,30.32,SSW,201,0.0,0.0,78,0.00,,,0.00,Wunderground v.1.15,2013-04-27 08:54:00,
2013-04-27 04:55:00,51.0,44.4,30.32,SSW,201,0.0,0.0,78,0.00,,,0.00,Wunderground v.1.15,2013-04-27 08:55:00,
2013-04-27 04:59:00,50.9,44.3,30.32,SSW,201,0.0,0.0,78,0.00,,,0.00,Wunderground v.1.15,2013-04-27 08:59:00,
2013-04-27 05:00:00,50.9,44.3,30.32,SSW,201,0.0,0.0,78,0.00,,,0.00,Wunderground v.1.15,2013-04-27 09:00:00,
2013-04-27 05:01:00,50.9,44.3,30.32,SSW,201,0.0,0.0,78,0.00,,,0.00,Wunderground v.1.15,2013-04-27 09:01:00,
2013-04-27 05:05:00,50.9,44.3,30.32,SSW,201,0.0,0.0,78,0.00,,,0.00,Wunderground v.1.15,2013-04-27 09:05:00,
2013-04-27 05:06:00,50.9,44.3,30.32,SSW,201,0.0,0.0,78,0.00,,,0.00,Wunderground v.1.15,2013-04-27 09:06:00,
2013-04-27 05:08:00,50.9,44.3,30.32,SSW,201,0.0,0.0,78,0.00,,,0.00,Wunderground v.1.15,2013-04-27 09:08:00,
2013-04-27 05:13:00,50.9,43.9,30.32,SSW,201,0.0,0.0,77,0.00,,,0.00,Wunderground v.1.15,2013-04-27 09:13:00,
2013-04-27 05:15:00,50.9,43.9,30.32,SSW,201,0.0,0.0,77,0.00,,,0.00,Wunderground v.1.15,2013-04-27 09:15:00,
2013-04-27 05:16:00,50.9,43.9,30.32,SSW,201,0.0,0.0,77,0.00,,,0.00,Wunderground v.1.15,2013-04-27 09:16:00,
2013-04-27 05:18:00,50.9,43.9,30.32,SSW,201,0.0,0.0,77,0.00,,,0.00,Wunderground v.1.15,2013-04-27 09:18:00,
2013-04-27 05:19:00,50.9,43.9,30.32,SSW,201,0.0,0.0,77,0.00,,,0.00,Wunderground v.1.15,2013-04-27 09:19:00,
2013-04-27 05:21:00,50.9,44.3,30.32,SSW,201,0.0,0.0,78,0.00,,,0.00,Wunderground v.1.15,2013-04-27 09:21:00,
2013-04-27 05:24:00,50.9,44.3,30.32,SSW,201,0.0,0.0,78,0.00,,,0.00,Wunderground v.1.15,2013-04-27 09:24:00,
2013-04-27 05:26:00,51.0,43.7,30.32,SSW,201,0.0,0.0,76,0.00,,,0.00,Wunderground v.1.15,2013-04-27 09:26:00,
2013-04-27 05:27:00,51.0,43.7,30.32,SSW,201,0.0,0.0,76,0.00,,,0.00,Wunderground v.1.15,2013-04-27 09:27:00,
2013-04-27 05:29:00,51.0,43.7,30.32,SSW,201,0.0,0.0,76,0.00,,,0.00,Wunderground v.1.15,2013-04-27 09:29:00,
2013-04-27 05:31:00,51.0,43.7,30.32,SSW,201,0.0,0.0,76,0.00,,,0.00,Wunderground v.1.15,2013-04-27 09:31:00,
2013-04-27 05:34:00,51.0,44.0,30.32,SSW,201,0.0,0.0,77,0.00,,,0.00,Wunderground v.1.15,2013-04-27 09:34:00,
2013-04-27 05:39:00,51.1,44.5,30.32,SSW,201,0.0,0.0,78,0.00,,,0.00,Wunderground v.1.15,2013-04-27 09:39:00,
2013-04-27 05:40:00,51.0,44.4,30.32,SSW,201,0.0,0.0,78,0.00,,,0.00,Wunderground v.1.15,2013-04-27 09:40:00,
2013-04-27 05:41:00,51.1,44.8,30.31,SSW,201,0.0,0.0,79,0.00,,,0.00,Wunderground v.1.15,2013-04-27 09:41:00,
2013-04-27 05:44:00,51.1,44.8,30.31,SSW,200,0.0,0.0,79,0.00,,,0.00,Wunderground v.1.15,2013-04-27 09:44:00,
2013-04-27 05:47:00,51.0,44.4,30.31,SSW,200,0.0,0.0,78,0.00,,,0.00,Wunderground v.1.15,2013-04-27 09:47:00,
2013-04-27 05:48:00,51.0,44.4,30.31,SSW,200,0.0,0.0,78,0.00,,,0.00,Wunderground v.1.15,2013-04-27 09:48:00,
2013-04-27 05:50:00,51.0,44.4,30.31,SSW,200,0.0,0.0,78,0.00,,,0.00,Wunderground v.1.15,2013-04-27 09:50:00,
2013-04-27 05:51:00,50.9,44.3,30.31,SSW,200,0.0,0.0,78,0.00,,,0.00,Wunderground v.1.15,2013-04-27 09:51:00,
2013-04-27 05:53:00,50.9,43.9,30.31,SSW,200,0.0,0.0,77,0.00,,,0.00,Wunderground v.1.15,2013-04-27 09:53:00,
2013-04-27 05:54:00,50.9,43.9,30.30,SSW,200,0.0,0.0,77,0.00,,,0.00,Wunderground v.1.15,2013-04-27 09:54:00,
2013-04-27 05:55:00,50.9,43.9,30.30,SSW,200,0.0,0.0,77,0.00,,,0.00,Wunderground v.1.15,2013-04-27 09:55:00,
2013-04-27 05:57:00,50.9,43.9,30.30,SSW,200,0.0,0.0,77,0.00,,,0.00,Wunderground v.1.15,2013-04-27 09:57:00,
2013-04-27 05:58:00,50.9,44.3,30.30,SSW,200,0.0,0.0,78,0.00,,,0.00,Wunderground v.1.15,2013-04-27 09:58:00,
2013-04-27 05:59:00,50.9,44.3,30.30,SSW,200,0.0,0.0,78,0.00,,,0.00,Wunderground v.1.15,2013-04-27 09:59:00,
2013-04-27 06:03:00,50.9,44.3,30.30,SSW,200,0.0,0.0,78,0.00,,,0.00,Wunderground v.1.15,2013-04-27 10:03:00,
2013-04-27 06:05:00,51.0,44.4,30.30,SSW,200,0.0,0.0,78,0.00,,,0.00,Wunderground v.1.15,2013-04-27 10:05:00,
2013-04-27 06:08:00,51.0,44.4,30.30,SSW,200,0.0,0.0,78,0.00,,,0.00,Wunderground v.1.15,2013-04-27 10:08:00,
2013-04-27 06:11:00,51.0,44.4,30.30,SSW,200,0.0,0.0,78,0.00,,,0.00,Wunderground v.1.15,2013-04-27 10:11:00,
2013-04-27 06:13:00,51.0,44.4,30.29,SSW,198,0.0,0.0,78,0.00,,,0.00,Wunderground v.1.15,2013-04-27 10:13:00,
2013-04-27 06:16:00,51.0,44.7,30.29,SSW,198,0.0,0.0,79,0.00,,,0.00,Wunderground v.1.15,2013-04-27 10:16:00,
2013-04-27 06:19:00,51.1,44.8,30.29,SSW,198,0.0,0.0,79,0.00,,,0.00,Wunderground v.1.15,2013-04-27 10:19:00,
2013-04-27 06:20:00,51.1,44.8,30.29,SSW,198,0.0,0.0,79,0.00,,,0.00,Wunderground v.1.15,2013-04-27 10:20:00,
2013-04-27 06:21:00,51.0,44.7,30.29,SSW,198,0.0,0.0,79,0.00,,,0.00,Wunderground v.1.15,2013-04-27 10:21:00,
2013-04-27 06:22:00,51.0,44.7,30.29,SSW,198,0.0,0.0,79,0.00,,,0.00,Wunderground v.1.15,2013-04-27 10:22:00,
2013-04-27 06:28:00,51.0,44.7,30.30,SSW,198,0.0,0.0,79,0.00,,,0.00,Wunderground v.1.15,2013-04-27 10:28:00,
2013-04-27 06:29:00,51.0,44.7,30.30,SSW,198,0.0,0.0,79,0.00,,,0.00,Wunderground v.1.15,2013-04-27 10:29:00,
2013-04-27 06:30:00,51.0,44.7,30.30,SSW,198,0.0,0.0,79,0.00,,,0.00,Wunderground v.1.15,2013-04-27 10:30:00,
2013-04-27 06:32:00,51.0,44.7,30.30,SSW,198,0.0,0.0,79,0.00,,,0.00,Wunderground v.1.15,2013-04-27 10:32:00,
2013-04-27 06:35:00,51.0,44.7,30.29,SSW,198,0.0,0.0,79,0.00,,,0.00,Wunderground v.1.15,2013-04-27 10:35:00,
2013-04-27 06:36:00,51.0,45.0,30.29,SSW,198,0.0,0.0,80,0.00,,,0.00,Wunderground v.1.15,2013-04-27 10:36:00,
2013-04-27 06:38:00,51.0,44.7,30.29,SSW,198,0.0,0.0,79,0.00,,,0.00,Wunderground v.1.15,2013-04-27 10:38:00,
2013-04-27 06:39:00,51.0,45.0,30.30,SSW,198,0.0,0.0,80,0.00,,,0.00,Wunderground v.1.15,2013-04-27 10:39:00,
2013-04-27 06:41:00,51.0,44.7,30.30,SSW,198,0.0,0.0,79,0.00,,,0.00,Wunderground v.1.15,2013-04-27 10:41:00,
2013-04-27 06:45:00,50.9,44.6,30.30,SSW,198,0.0,0.0,79,0.00,,,0.00,Wunderground v.1.15,2013-04-27 10:45:00,
2013-04-27 06:47:00,50.9,44.6,30.30,SSW,198,0.0,0.0,79,0.00,,,0.00,Wunderground v.1.15,2013-04-27 10:47:00,
2013-04-27 06:48:00,50.9,44.6,30.30,SSW,198,0.0,0.0,79,0.00,,,0.00,Wunderground v.1.15,2013-04-27 10:48:00,
2013-04-27 06:49:00,50.9,44.3,30.30,SSW,198,0.0,0.0,78,0.00,,,0.00,Wunderground v.1.15,2013-04-27 10:49:00,
2013-04-27 06:52:00,50.8,44.5,30.30,SSW,198,0.0,0.0,79,0.00,,,0.00,Wunderground v.1.15,2013-04-27 10:52:00,
2013-04-27 06:54:00,50.8,44.9,30.30,SSW,198,0.0,0.0,80,0.00,,,0.00,Wunderground v.1.15,2013-04-27 10:54:00,
2013-04-27 06:55:00,50.8,44.9,30.30,SSW,198,0.0,0.0,80,0.00,,,0.00,Wunderground v.1.15,2013-04-27 10:55:00,
2013-04-27 06:56:00,50.9,44.9,30.30,SSW,198,0.0,0.0,80,0.00,,,0.00,Wunderground v.1.15,2013-04-27 10:56:00,
2013-04-27 06:59:00,50.9,44.9,30.29,SSW,198,0.0,0.0,80,0.00,,,0.00,Wunderground v.1.15,2013-04-27 10:59:00,
2013-04-27 07:02:00,50.9,44.9,30.29,SSW,198,0.0,0.0,80,0.00,,,0.00,Wunderground v.1.15,2013-04-27 11:02:00,
2013-04-27 07:03:00,50.9,44.9,30.29,SSW,198,0.0,0.0,80,0.00,,,0.00,Wunderground v.1.15,2013-04-27 11:03:00,
2013-04-27 07:04:00,50.9,45.3,30.29,SSW,198,0.0,0.0,81,0.00,,,0.00,Wunderground v.1.15,2013-04-27 11:04:00,
2013-04-27 07:05:00,50.9,45.3,30.29,SSW,198,0.0,0.0,81,0.00,,,0.00,Wunderground v.1.15,2013-04-27 11:05:00,
2013-04-27 07:06:00,50.9,45.3,30.29,SSW,198,0.0,0.0,81,0.00,,,0.00,Wunderground v.1.15,2013-04-27 11:06:00,
2013-04-27 07:09:00,50.9,44.9,30.29,SSW,198,0.0,0.0,80,0.00,,,0.00,Wunderground v.1.15,2013-04-27 11:09:00,
2013-04-27 07:10:00,50.9,45.3,30.29,SSW,198,0.0,0.0,81,0.00,,,0.00,Wunderground v.1.15,2013-04-27 11:10:00,
2013-04-27 07:12:00,50.9,45.3,30.29,SSW,198,0.0,0.0,81,0.00,,,0.00,Wunderground v.1.15,2013-04-27 11:12:00,
2013-04-27 07:16:00,50.9,45.3,30.29,SSW,198,0.0,0.0,81,0.00,,,0.00,Wunderground v.1.15,2013-04-27 11:16:00,
2013-04-27 07:17:00,50.9,45.3,30.29,SSW,198,0.0,0.0,81,0.00,,,0.00,Wunderground v.1.15,2013-04-27 11:17:00,
2013-04-27 07:18:00,50.9,44.9,30.29,SSW,198,0.0,0.0,80,0.00,,,0.00,Wunderground v.1.15,2013-04-27 11:18:00,
2013-04-27 07:23:00,51.0,45.0,30.29,SSW,198,0.0,0.0,80,0.00,,,0.00,Wunderground v.1.15,2013-04-27 11:23:00,
2013-04-27 07:25:00,51.0,45.4,30.29,SSW,198,0.0,0.0,81,0.00,,,0.00,Wunderground v.1.15,2013-04-27 11:25:00,
2013-04-27 07:26:00,51.0,45.4,30.29,SSW,198,0.0,0.0,81,0.00,,,0.00,Wunderground v.1.15,2013-04-27 11:26:00,
2013-04-27 07:30:00,51.0,45.4,30.29,SSW,198,0.0,1.0,81,0.00,,,0.00,Wunderground v.1.15,2013-04-27 11:30:00,
2013-04-27 07:32:00,51.0,45.7,30.29,SSW,198,0.0,1.0,82,0.00,,,0.00,Wunderground v.1.15,2013-04-27 11:32:00,
2013-04-27 07:36:00,51.0,45.4,30.29,SSW,198,0.0,0.0,81,0.00,,,0.00,Wunderground v.1.15,2013-04-27 11:36:00,
2013-04-27 07:37:00,51.0,45.7,30.28,SSW,198,0.0,0.0,82,0.00,,,0.00,Wunderground v.1.15,2013-04-27 11:37:00,
2013-04-27 07:38:00,51.0,45.7,30.28,SSW,198,0.0,1.0,82,0.00,,,0.00,Wunderground v.1.15,2013-04-27 11:38:00,
2013-04-27 07:39:00,51.0,45.7,30.28,SSW,198,0.0,1.0,82,0.00,,,0.00,Wunderground v.1.15,2013-04-27 11:39:00,
2013-04-27 07:41:00,51.0,45.7,30.28,SSW,198,0.0,1.0,82,0.00,,,0.00,Wunderground v.1.15,2013-04-27 11:41:00,
2013-04-27 07:45:00,51.1,45.8,30.28,SSW,198,0.0,1.0,82,0.00,,,0.00,Wunderground v.1.15,2013-04-27 11:45:00,
2013-04-27 07:47:00,51.1,45.5,30.28,SSW,198,0.0,1.0,81,0.00,,,0.00,Wunderground v.1.15,2013-04-27 11:47:00,
2013-04-27 07:49:00,51.2,45.6,30.28,SSW,198,0.0,1.0,81,0.00,,,0.00,Wunderground v.1.15,2013-04-27 11:49:00,
2013-04-27 07:51:00,51.3,45.7,30.28,SSW,198,0.0,1.0,81,0.00,,,0.00,Wunderground v.1.15,2013-04-27 11:51:00,
2013-04-27 07:54:00,51.4,45.8,30.29,SSW,198,0.0,0.0,81,0.00,,,0.00,Wunderground v.1.15,2013-04-27 11:54:00,
2013-04-27 07:56:00,51.4,45.8,30.28,SSW,198,0.0,0.0,81,0.00,,,0.00,Wunderground v.1.15,2013-04-27 11:56:00,
2013-04-27 07:58:00,51.4,45.8,30.29,SSW,198,0.0,0.0,81,0.00,,,0.00,Wunderground v.1.15,2013-04-27 11:58:00,
2013-04-27 08:02:00,51.5,45.9,30.28,SSW,198,0.0,0.0,81,0.00,,,0.00,Wunderground v.1.15,2013-04-27 12:02:00,
2013-04-27 08:04:00,51.6,46.0,30.29,SSW,198,0.0,0.0,81,0.00,,,0.00,Wunderground v.1.15,2013-04-27 12:04:00,
2013-04-27 08:05:00,51.6,46.3,30.29,SSW,198,0.0,0.0,82,0.00,,,0.00,Wunderground v.1.15,2013-04-27 12:05:00,
2013-04-27 08:08:00,51.7,46.1,30.29,SSW,198,0.0,0.0,81,0.00,,,0.00,Wunderground v.1.15,2013-04-27 12:08:00,
2013-04-27 08:11:00,51.7,46.1,30.28,SSW,198,0.0,0.0,81,0.00,,,0.00,Wunderground v.1.15,2013-04-27 12:11:00,
2013-04-27 08:13:00,51.8,46.2,30.28,SSW,198,0.0,0.0,81,0.00,,,0.00,Wunderground v.1.15,2013-04-27 12:13:00,
2013-04-27 08:14:00,51.8,46.2,30.29,SSW,198,0.0,0.0,81,0.00,,,0.00,Wunderground v.1.15,2013-04-27 12:14:00,
2013-04-27 08:16:00,51.9,45.9,30.29,SSW,198,0.0,0.0,80,0.00,,,0.00,Wunderground v.1.15,2013-04-27 12:16:00,
2013-04-27 08:18:00,51.9,46.3,30.29,SSW,198,0.0,0.0,81,0.00,,,0.00,Wunderground v.1.15,2013-04-27 12:18:00,
2013-04-27 08:20:00,51.9,46.3,30.28,SSW,198,0.0,0.0,81,0.00,,,0.00,Wunderground v.1.15,2013-04-27 12:20:00,
2013-04-27 08:22:00,52.0,46.3,30.28,SSW,198,0.0,0.0,81,0.00,,,0.00,Wunderground v.1.15,2013-04-27 12:22:00,
2013-04-27 08:28:00,52.1,46.4,30.28,SSW,196,0.0,2.0,81,0.00,,,0.00,Wunderground v.1.15,2013-04-27 12:28:00,
2013-04-27 08:29:00,52.1,46.4,30.28,SSW,196,0.0,2.0,81,0.00,,,0.00,Wunderground v.1.15,2013-04-27 12:29:00,
2013-04-27 08:31:00,52.2,46.5,30.28,SSW,196,0.0,2.0,81,0.00,,,0.00,Wunderground v.1.15,2013-04-27 12:31:00,
2013-04-27 08:32:00,52.2,46.5,30.28,SSW,196,0.0,2.0,81,0.00,,,0.00,Wunderground v.1.15,2013-04-27 12:32:00,
2013-04-27 08:34:00,52.2,46.2,30.28,SSW,196,0.0,0.0,80,0.00,,,0.00,Wunderground v.1.15,2013-04-27 12:34:00,
2013-04-27 08:37:00,52.2,46.5,30.28,SSW,196,0.0,1.0,81,0.00,,,0.00,Wunderground v.1.15,2013-04-27 12:37:00,
2013-04-27 08:38:00,52.2,46.2,30.28,SSW,196,0.0,1.0,80,0.00,,,0.00,Wunderground v.1.15,2013-04-27 12:38:00,
2013-04-27 08:39:00,52.2,46.2,30.29,SSW,196,0.0,1.0,80,0.00,,,0.00,Wunderground v.1.15,2013-04-27 12:39:00,
2013-04-27 08:40:00,52.2,46.5,30.29,SSW,196,0.0,1.0,81,0.00,,,0.00,Wunderground v.1.15,2013-04-27 12:40:00,
2013-04-27 08:44:00,52.3,46.6,30.29,SSW,196,0.0,0.0,81,0.00,,,0.00,Wunderground v.1.15,2013-04-27 12:44:00,
2013-04-27 08:45:00,52.3,46.6,30.29,SSW,196,0.0,0.0,81,0.00,,,0.00,Wunderground v.1.15,2013-04-27 12:45:00,
2013-04-27 08:46:00,52.3,46.6,30.29,SSW,196,0.0,0.0,81,0.00,,,0.00,Wunderground v.1.15,2013-04-27 12:46:00,
2013-04-27 08:50:00,52.3,46.6,30.29,SSW,196,0.0,0.0,81,0.00,,,0.00,Wunderground v.1.15,2013-04-27 12:50:00,
2013-04-27 08:53:00,52.3,46.6,30.29,SSW,196,0.0,0.0,81,0.00,,,0.00,Wunderground v.1.15,2013-04-27 12:53:00,
2013-04-27 08:54:00,52.3,46.6,30.29,SSW,196,0.0,0.0,81,0.00,,,0.00,Wunderground v.1.15,2013-04-27 12:54:00,
2013-04-27 08:55:00,52.4,46.7,30.29,SSW,196,0.0,0.0,81,0.00,,,0.00,Wunderground v.1.15,2013-04-27 12:55:00,
2013-04-27 08:58:00,52.4,47.1,30.29,SSW,196,0.0,0.0,82,0.00,,,0.00,Wunderground v.1.15,2013-04-27 12:58:00,
2013-04-27 09:04:00,52.4,47.1,30.30,SSW,196,0.0,0.0,82,0.00,,,0.00,Wunderground v.1.15,2013-04-27 13:04:00,
2013-04-27 09:05:00,52.4,47.1,30.30,SSW,196,0.0,0.0,82,0.00,,,0.00,Wunderground v.1.15,2013-04-27 13:05:00,
2013-04-27 09:06:00,52.4,47.1,30.30,SSW,196,0.0,0.0,82,0.00,,,0.00,Wunderground v.1.15,2013-04-27 13:06:00,
2013-04-27 09:07:00,52.4,46.7,30.30,SSW,196,0.0,0.0,81,0.00,,,0.00,Wunderground v.1.15,2013-04-27 13:07:00,
2013-04-27 09:09:00,52.4,46.7,30.30,SSW,196,0.0,0.0,81,0.00,,,0.00,Wunderground v.1.15,2013-04-27 13:09:00,
2013-04-27 09:12:00,52.4,46.7,30.29,SSW,196,0.0,0.0,81,0.00,,,0.00,Wunderground v.1.15,2013-04-27 13:12:00,
2013-04-27 09:14:00,52.5,46.8,30.29,SSW,196,0.0,0.0,81,0.00,,,0.00,Wunderground v.1.15,2013-04-27 13:14:00,
2013-04-27 09:17:00,52.5,46.8,30.29,SSW,196,0.0,0.0,81,0.00,,,0.00,Wunderground v.1.15,2013-04-27 13:17:00,
2013-04-27 09:19:00,52.5,47.2,30.29,SSW,196,0.0,0.0,82,0.00,,,0.00,Wunderground v.1.15,2013-04-27 13:19:00,
2013-04-27 09:20:00,52.5,47.2,30.29,SSW,196,0.0,0.0,82,0.00,,,0.00,Wunderground v.1.15,2013-04-27 13:20:00,
2013-04-27 09:24:00,52.5,47.2,30.29,SSW,196,0.0,0.0,82,0.00,,,0.00,Wunderground v.1.15,2013-04-27 13:24:00,
2013-04-27 09:26:00,52.5,47.2,30.29,SSW,196,0.0,0.0,82,0.00,,,0.00,Wunderground v.1.15,2013-04-27 13:26:00,
2013-04-27 09:30:00,52.6,47.3,30.29,SSW,196,0.0,0.0,82,0.00,,,0.00,Wunderground v.1.15,2013-04-27 13:30:00,
2013-04-27 09:32:00,52.5,47.2,30.29,SSW,196,0.0,0.0,82,0.00,,,0.00,Wunderground v.1.15,2013-04-27 13:32:00,
2013-04-27 09:34:00,52.5,47.2,30.29,SSW,196,0.0,0.0,82,0.00,,,0.00,Wunderground v.1.15,2013-04-27 13:34:00,
2013-04-27 09:37:00,52.5,47.2,30.29,SSW,196,0.0,0.0,82,0.00,,,0.00,Wunderground v.1.15,2013-04-27 13:37:00,
2013-04-27 09:39:00,52.5,47.2,30.29,SSW,196,0.0,0.0,82,0.00,,,0.00,Wunderground v.1.15,2013-04-27 13:39:00,
2013-04-27 09:41:00,52.6,47.6,30.29,SSW,196,0.0,0.0,83,0.00,,,0.00,Wunderground v.1.15,2013-04-27 13:41:00,
2013-04-27 09:43:00,52.6,47.6,30.30,SSW,196,0.0,0.0,83,0.00,,,0.00,Wunderground v.1.15,2013-04-27 13:43:00,
2013-04-27 09:49:00,52.6,47.6,30.30,SSW,196,0.0,0.0,83,0.00,,,0.00,Wunderground v.1.15,2013-04-27 13:49:00,
2013-04-27 09:50:00,52.6,47.6,30.29,SSW,196,0.0,0.0,83,0.00,,,0.00,Wunderground v.1.15,2013-04-27 13:50:00,
2013-04-27 09:51:00,52.6,47.6,30.29,SSW,196,0.0,0.0,83,0.00,,,0.00,Wunderground v.1.15,2013-04-27 13:51:00,
2013-04-27 09:55:00,52.6,47.6,30.29,SSW,196,0.0,0.0,83,0.00,,,0.00,Wunderground v.1.15,2013-04-27 13:55:00,
2013-04-27 09:57:00,52.6,47.6,30.29,SSW,196,0.0,0.0,83,0.00,,,0.00,Wunderground v.1.15,2013-04-27 13:57:00,
2013-04-27 10:00:00,52.6,47.6,30.29,SSW,196,0.0,0.0,83,0.00,,,0.00,Wunderground v.1.15,2013-04-27 14:00:00,
2013-04-27 10:01:00,52.6,47.6,30.29,SSW,196,0.0,0.0,83,0.00,,,0.00,Wunderground v.1.15,2013-04-27 14:01:00,
2013-04-27 10:03:00,52.7,47.7,30.28,SSW,196,0.0,0.0,83,0.00,,,0.00,Wunderground v.1.15,2013-04-27 14:03:00,
2013-04-27 10:07:00,52.7,47.7,30.28,SSW,196,0.0,0.0,83,0.00,,,0.00,Wunderground v.1.15,2013-04-27 14:07:00,
2013-04-27 10:09:00,52.7,47.7,30.28,SSW,196,0.0,0.0,83,0.00,,,0.00,Wunderground v.1.15,2013-04-27 14:09:00,
2013-04-27 10:14:00,52.8,47.8,30.28,SSW,196,0.0,0.0,83,0.00,,,0.00,Wunderground v.1.15,2013-04-27 14:14:00,
2013-04-27 10:15:00,52.8,47.8,30.28,SSW,196,0.0,0.0,83,0.00,,,0.00,Wunderground v.1.15,2013-04-27 14:15:00,
2013-04-27 10:17:00,52.8,47.8,30.28,SSW,196,0.0,0.0,83,0.00,,,0.00,Wunderground v.1.15,2013-04-27 14:17:00,
2013-04-27 10:20:00,53.0,48.0,30.28,SSW,196,0.0,0.0,83,0.00,,,0.00,Wunderground v.1.15,2013-04-27 14:20:00,
2013-04-27 10:21:00,53.0,48.0,30.28,SSW,196,0.0,0.0,83,0.00,,,0.00,Wunderground v.1.15,2013-04-27 14:21:00,
2013-04-27 10:22:00,53.0,48.0,30.27,SSW,196,0.0,0.0,83,0.00,,,0.00,Wunderground v.1.15,2013-04-27 14:22:00,
2013-04-27 10:26:00,53.1,48.1,30.27,SSW,196,0.0,0.0,83,0.00,,,0.00,Wunderground v.1.15,2013-04-27 14:26:00,
2013-04-27 10:29:00,53.2,47.8,30.27,SSW,196,0.0,0.0,82,0.00,,,0.00,Wunderground v.1.15,2013-04-27 14:29:00,
2013-04-27 10:31:00,53.2,47.8,30.27,SSW,196,0.0,0.0,82,0.00,,,0.00,Wunderground v.1.15,2013-04-27 14:31:00,
2013-04-27 10:34:00,53.2,47.8,30.27,SSW,196,0.0,0.0,82,0.00,,,0.00,Wunderground v.1.15,2013-04-27 14:34:00,
2013-04-27 10:35:00,53.3,47.9,30.27,SSW,196,0.0,0.0,82,0.00,,,0.00,Wunderground v.1.15,2013-04-27 14:35:00,
2013-04-27 10:36:00,53.3,47.9,30.27,SSW,196,0.0,0.0,82,0.00,,,0.00,Wunderground v.1.15,2013-04-27 14:36:00,
2013-04-27 10:38:00,53.4,48.0,30.27,SSW,196,0.0,0.0,82,0.00,,,0.00,Wunderground v.1.15,2013-04-27 14:38:00,
2013-04-27 10:39:00,53.5,48.1,30.27,SSW,196,0.0,0.0,82,0.00,,,0.00,Wunderground v.1.15,2013-04-27 14:39:00,
2013-04-27 10:41:00,53.5,48.1,30.27,SSW,196,0.0,0.0,82,0.00,,,0.00,Wunderground v.1.15,2013-04-27 14:41:00,
2013-04-27 10:43:00,53.5,48.1,30.27,SSW,196,0.0,0.0,82,0.00,,,0.00,Wunderground v.1.15,2013-04-27 14:43:00,
2013-04-27 10:45:00,53.6,48.2,30.27,SSW,196,0.0,0.0,82,0.00,,,0.00,Wunderground v.1.15,2013-04-27 14:45:00,
2013-04-27 10:46:00,55.1,53.1,30.03,ESE,115,1.0,2.0,93,0.00,,,0.09,Wunderground v.1.15,2013-04-27 14:46:00,
2013-04-27 10:47:00,53.6,47.9,30.27,SSW,196,0.0,0.0,81,0.00,,,0.00,Wunderground v.1.15,2013-04-27 14:47:00,
2013-04-27 10:48:00,55.1,53.1,30.04,ESE,115,1.0,2.0,93,0.00,,,0.09,Wunderground v.1.15,2013-04-27 14:48:00,
2013-04-27 10:50:00,53.7,48.0,30.27,SSW,196,0.0,0.0,81,0.00,,,0.00,Wunderground v.1.15,2013-04-27 14:50:00,
2013-04-27 10:51:00,53.7,48.0,30.27,SSW,196,0.0,0.0,81,0.00,,,0.00,Wunderground v.1.15,2013-04-27 14:51:00,
2013-04-27 10:52:00,53.8,48.1,30.27,SSW,196,0.0,0.0,81,0.00,,,0.00,Wunderground v.1.15,2013-04-27 14:52:00,
2013-04-27 10:55:00,53.9,48.2,30.27,SSW,196,0.0,0.0,81,0.00,,,0.00,Wunderground v.1.15,2013-04-27 14:55:00,
2013-04-27 10:56:00,53.9,48.2,30.27,SSW,196,0.0,0.0,81,0.00,,,0.00,Wunderground v.1.15,2013-04-27 14:56:00,
2013-04-27 11:01:00,54.0,48.3,30.27,SSW,196,0.0,0.0,81,0.00,,,0.00,Wunderground v.1.15,2013-04-27 15:01:00,
2013-04-27 11:02:00,54.0,48.3,30.27,SSW,196,0.0,0.0,81,0.00,,,0.00,Wunderground v.1.15,2013-04-27 15:02:00,
2013-04-27 11:03:00,55.0,53.0,30.03,SE,132,0.0,1.0,93,0.00,,,0.09,Wunderground v.1.15,2013-04-27 15:03:00,
2013-04-27 11:04:00,54.1,48.1,30.27,SSW,194,0.0,1.0,80,0.00,,,0.00,Wunderground v.1.15,2013-04-27 15:04:00,
2013-04-27 11:07:00,54.2,48.2,30.27,SSW,194,0.0,1.0,80,0.00,,,0.00,Wunderground v.1.15,2013-04-27 15:07:00,
2013-04-27 11:09:00,54.3,48.3,30.27,SSW,194,0.0,1.0,80,0.00,,,0.00,Wunderground v.1.15,2013-04-27 15:09:00,
2013-04-27 11:10:00,54.3,48.3,30.27,SSW,194,0.0,1.0,80,0.00,,,0.00,Wunderground v.1.15,2013-04-27 15:10:00,
2013-04-27 11:11:00,54.3,48.3,30.27,SSW,194,0.0,1.0,80,0.00,,,0.00,Wunderground v.1.15,2013-04-27 15:11:00,
2013-04-27 11:13:00,54.4,48.0,30.27,SSW,194,0.0,0.0,79,0.00,,,0.00,Wunderground v.1.15,2013-04-27 15:13:00,
2013-04-27 11:15:00,55.1,53.4,30.01,ESE,113,1.0,2.0,94,0.00,,,0.09,Wunderground v.1.15,2013-04-27 15:15:00,
2013-04-27 11:17:00,54.5,48.5,30.27,SSW,194,0.0,1.0,80,0.00,,,0.00,Wunderground v.1.15,2013-04-27 15:17:00,
2013-04-27 11:18:00,54.5,48.1,30.27,SSW,194,0.0,1.0,79,0.00,,,0.00,Wunderground v.1.15,2013-04-27 15:18:00,
2013-04-27 11:19:00,54.5,48.5,30.27,South,191,1.0,1.0,80,0.00,,,0.00,Wunderground v.1.15,2013-04-27 15:19:00,
2013-04-27 11:20:00,55.1,53.4,30.00,ESE,105,2.0,2.0,94,0.00,,,0.09,Wunderground v.1.15,2013-04-27 15:20:00,
2013-04-27 11:21:00,55.1,53.4,30.00,SE,124,2.0,3.0,94,0.00,,,0.09,Wunderground v.1.15,2013-04-27 15:21:00,
2013-04-27 11:24:00,54.8,48.7,30.26,South,191,1.0,1.0,80,0.00,,,0.00,Wunderground v.1.15,2013-04-27 15:24:00,
2013-04-27 11:25:00,54.8,48.4,30.26,South,172,1.0,1.0,79,0.00,,,0.00,Wunderground v.1.15,2013-04-27 15:25:00,
2013-04-27 11:26:00,54.8,48.4,30.26,South,172,1.0,1.0,79,0.00,,,0.00,Wunderground v.1.15,2013-04-27 15:26:00,
2013-04-27 11:28:00,55.2,53.5,29.99,SSE,155,2.0,3.0,94,0.00,,,0.09,Wunderground v.1.15,2013-04-27 15:28:00,
2013-04-27 11:30:00,54.9,48.5,30.26,SSE,164,1.0,1.0,79,0.00,,,0.00,Wunderground v.1.15,2013-04-27 15:30:00,
2013-04-27 11:31:00,54.9,48.5,30.26,SSE,164,1.0,1.0,79,0.00,,,0.00,Wunderground v.1.15,2013-04-27 15:31:00,
2013-04-27 11:33:00,55.0,48.6,30.26,SSE,164,1.0,1.0,79,0.00,,,0.00,Wunderground v.1.15,2013-04-27 15:33:00,
2013-04-27 11:34:00,55.0,48.6,30.26,SSE,164,1.0,1.0,79,0.00,,,0.00,Wunderground v.1.15,2013-04-27 15:34:00,
2013-04-27 11:37:00,55.2,53.5,29.98,ENE,65,2.0,3.0,94,0.00,,,0.09,Wunderground v.1.15,2013-04-27 15:37:00,
2013-04-27 11:40:00,55.2,48.5,30.27,SSE,164,0.0,1.0,78,0.00,,,0.00,Wunderground v.1.15,2013-04-27 15:40:00,
2013-04-27 11:41:00,55.2,48.5,30.27,SSE,160,0.0,1.0,78,0.00,,,0.00,Wunderground v.1.15,2013-04-27 15:41:00,
2013-04-27 11:42:00,55.2,48.5,30.27,SSE,160,0.0,1.0,78,0.00,,,0.00,Wunderground v.1.15,2013-04-27 15:42:00,
2013-04-27 11:44:00,55.2,48.5,30.27,SSE,160,0.0,0.0,78,0.00,,,0.00,Wunderground v.1.15,2013-04-27 15:44:00,
2013-04-27 11:46:00,55.3,48.6,30.27,SSE,160,0.0,1.0,78,0.00,,,0.00,Wunderground v.1.15,2013-04-27 15:46:00,
2013-04-27 11:47:00,55.3,48.2,30.27,SSE,160,0.0,1.0,77,0.00,,,0.00,Wunderground v.1.15,2013-04-27 15:47:00,
2013-04-27 11:48:00,55.3,48.2,30.27,SSE,160,0.0,1.0,77,0.00,,,0.00,Wunderground v.1.15,2013-04-27 15:48:00,
2013-04-27 11:49:00,55.3,48.6,30.27,SSE,160,1.0,1.0,78,0.00,,,0.00,Wunderground v.1.15,2013-04-27 15:49:00,
2013-04-27 11:51:00,55.4,48.7,30.27,SSE,160,0.0,1.0,78,0.00,,,0.00,Wunderground v.1.15,2013-04-27 15:51:00,
2013-04-27 11:53:00,55.4,48.7,30.27,SSE,160,0.0,0.0,78,0.00,,,0.00,Wunderground v.1.15,2013-04-27 15:53:00,
2013-04-27 11:54:00,55.4,48.7,30.27,SSE,160,0.0,0.0,78,0.00,,,0.00,Wunderground v.1.15,2013-04-27 15:54:00,
2013-04-27 11:56:00,55.5,48.8,30.28,SSE,160,0.0,0.0,78,0.00,,,0.00,Wunderground v.1.15,2013-04-27 15:56:00,
2013-04-27 11:58:00,55.5,48.8,30.28,SSE,160,0.0,0.0,78,0.00,,,0.00,Wunderground v.1.15,2013-04-27 15:58:00,
2013-04-27 12:00:00,55.5,48.4,30.28,SSE,157,0.0,3.0,77,0.00,,,0.00,Wunderground v.1.15,2013-04-27 16:00:00,
2013-04-27 12:02:00,55.6,48.5,30.28,SSE,157,0.0,3.0,77,0.00,,,0.00,Wunderground v.1.15,2013-04-27 16:02:00,
2013-04-27 12:03:00,55.7,48.6,30.28,SSE,157,0.0,0.0,77,0.00,,,0.00,Wunderground v.1.15,2013-04-27 16:03:00,
2013-04-27 12:04:00,55.7,48.6,30.28,SSE,157,0.0,0.0,77,0.00,,,0.00,Wunderground v.1.15,2013-04-27 16:04:00,
2013-04-27 12:05:00,55.7,48.9,30.28,SSE,157,0.0,0.0,78,0.00,,,0.00,Wunderground v.1.15,2013-04-27 16:05:00,
2013-04-27 12:07:00,55.2,53.5,29.99,ENE,58,1.0,3.0,94,0.00,,,0.00,Wunderground v.1.15,2013-04-27 16:07:00,
2013-04-27 12:08:00,55.2,53.5,29.99,ENE,58,1.0,3.0,94,0.00,,,0.00,Wunderground v.1.15,2013-04-27 16:08:00,
2013-04-27 12:09:00,55.2,53.5,29.98,ENE,58,1.0,3.0,94,0.00,,,0.00,Wunderground v.1.15,2013-04-27 16:09:00,
2013-04-27 12:10:00,55.9,48.8,30.28,SSE,147,0.0,2.0,77,0.00,,,0.00,Wunderground v.1.15,2013-04-27 16:10:00,
2013-04-27 12:11:00,55.9,48.8,30.28,SSE,147,0.0,2.0,77,0.00,,,0.00,Wunderground v.1.15,2013-04-27 16:11:00,
2013-04-27 12:12:00,55.1,53.4,29.98,NE,40,1.0,2.0,94,0.00,,,0.00,Wunderground v.1.15,2013-04-27 16:12:00,
2013-04-27 12:13:00,55.9,48.8,30.28,SSE,147,0.0,2.0,77,0.00,,,0.00,Wunderground v.1.15,2013-04-27 16:13:00,
2013-04-27 12:14:00,55.1,53.4,29.98,NE,40,1.0,2.0,94,0.00,,,0.00,Wunderground v.1.15,2013-04-27 16:14:00,
2013-04-27 12:15:00,55.1,53.4,29.98,NE,40,1.0,2.0,94,0.00,,,0.00,Wunderground v.1.15,2013-04-27 16:15:00,
2013-04-27 12:16:00,56.0,48.5,30.28,SSE,147,0.0,2.0,76,0.00,,,0.00,Wunderground v.1.15,2013-04-27 16:16:00,
2013-04-27 12:17:00,55.1,53.4,29.99,NE,40,0.0,2.0,94,0.00,,,0.00,Wunderground v.1.15,2013-04-27 16:17:00,
2013-04-27 12:18:00,56.1,48.6,30.28,SE,144,0.0,3.0,76,0.00,,,0.00,Wunderground v.1.15,2013-04-27 16:18:00,
2013-04-27 12:19:00,55.1,53.4,29.99,NE,40,0.0,2.0,94,0.00,,,0.00,Wunderground v.1.15,2013-04-27 16:19:00,
2013-04-27 12:20:00,56.2,48.7,30.28,SE,143,0.0,3.0,76,0.00,,,0.00,Wunderground v.1.15,2013-04-27 16:20:00,
2013-04-27 12:21:00,55.1,53.4,29.99,NE,40,0.0,0.0,94,0.00,,,0.00,Wunderground v.1.15,2013-04-27 16:21:00,
2013-04-27 12:22:00,56.3,48.8,30.28,SE,143,0.0,3.0,76,0.00,,,0.00,Wunderground v.1.15,2013-04-27 16:22:00,
2013-04-27 12:23:00,55.1,53.4,29.99,NE,40,0.0,1.0,94,0.00,,,0.00,Wunderground v.1.15,2013-04-27 16:23:00,
2013-04-27 12:24:00,55.1,53.4,29.98,NE,40,0.0,1.0,94,0.00,,,0.00,Wunderground v.1.15,2013-04-27 16:24:00,
2013-04-27 12:25:00,56.4,48.6,30.28,SE,136,0.0,2.0,75,0.00,,,0.00,Wunderground v.1.15,2013-04-27 16:25:00,
2013-04-27 12:26:00,55.1,53.4,29.98,NE,40,0.0,1.0,94,0.00,,,0.00,Wunderground v.1.15,2013-04-27 16:26:00,
2013-04-27 12:27:00,56.4,48.6,30.28,SE,136,0.0,2.0,75,0.00,,,0.00,Wunderground v.1.15,2013-04-27 16:27:00,
2013-04-27 12:28:00,56.5,49.0,30.28,SE,142,0.0,2.0,76,0.00,,,0.00,Wunderground v.1.15,2013-04-27 16:28:00,
2013-04-27 12:29:00,56.5,48.7,30.28,SE,142,0.0,2.0,75,0.00,,,0.00,Wunderground v.1.15,2013-04-27 16:29:00,
2013-04-27 12:30:00,55.1,53.4,29.99,NE,40,1.0,1.0,94,0.00,,,0.00,Wunderground v.1.15,2013-04-27 16:30:00,
2013-04-27 12:31:00,56.6,48.8,30.28,SSE,165,0.0,2.0,75,0.00,,,0.00,Wunderground v.1.15,2013-04-27 16:31:00,
2013-04-27 12:32:00,55.1,53.4,29.98,NE,40,0.0,1.0,94,0.00,,,0.00,Wunderground v.1.15,2013-04-27 16:32:00,
2013-04-27 12:33:00,55.1,53.4,29.98,NE,40,0.0,1.0,94,0.00,,,0.00,Wunderground v.1.15,2013-04-27 16:33:00,
2013-04-27 12:34:00,55.1,53.4,29.98,NE,40,0.0,1.0,94,0.00,,,0.00,Wunderground v.1.15,2013-04-27 16:34:00,
2013-04-27 12:35:00,55.1,53.4,29.98,NE,40,0.0,1.0,94,0.00,,,0.00,Wunderground v.1.15,2013-04-27 16:35:00,
2013-04-27 12:36:00,56.7,48.9,30.28,SSE,164,0.0,2.0,75,0.00,,,0.00,Wunderground v.1.15,2013-04-27 16:36:00,
2013-04-27 12:37:00,56.7,48.9,30.28,SSE,164,0.0,2.0,75,0.00,,,0.00,Wunderground v.1.15,2013-04-27 16:37:00,
2013-04-27 12:38:00,55.2,53.5,29.98,NE,40,0.0,1.0,94,0.00,,,0.00,Wunderground v.1.15,2013-04-27 16:38:00,
2013-04-27 12:39:00,55.1,53.4,29.98,NE,40,0.0,1.0,94,0.00,,,0.00,Wunderground v.1.15,2013-04-27 16:39:00,
2013-04-27 12:40:00,55.1,53.4,29.98,NE,40,0.0,0.0,94,0.00,,,0.00,Wunderground v.1.15,2013-04-27 16:40:00,
2013-04-27 12:41:00,56.8,49.3,30.28,SSE,164,0.0,2.0,76,0.00,,,0.00,Wunderground v.1.15,2013-04-27 16:41:00,
2013-04-27 12:42:00,56.8,49.0,30.28,SSE,156,0.0,2.0,75,0.00,,,0.00,Wunderground v.1.15,2013-04-27 16:42:00,
2013-04-27 12:43:00,55.1,53.4,29.98,NE,40,0.0,1.0,94,0.00,,,0.00,Wunderground v.1.15,2013-04-27 16:43:00,
2013-04-27 12:44:00,56.8,49.0,30.28,SSE,154,0.0,1.0,75,0.00,,,0.00,Wunderground v.1.15,2013-04-27 16:44:00,
2013-04-27 12:45:00,55.1,53.4,29.99,NE,40,0.0,1.0,94,0.00,,,0.00,Wunderground v.1.15,2013-04-27 16:45:00,
2013-04-27 12:46:00,56.8,48.6,30.28,South,172,1.0,2.0,74,0.00,,,0.00,Wunderground v.1.15,2013-04-27 16:46:00,
2013-04-27 12:47:00,56.7,48.9,30.28,South,172,1.0,2.0,75,0.00,,,0.00,Wunderground v.1.15,2013-04-27 16:47:00,
2013-04-27 12:48:00,55.1,53.4,29.98,NE,40,0.0,1.0,94,0.00,,,0.00,Wunderground v.1.15,2013-04-27 16:48:00,
2013-04-27 12:49:00,55.1,53.4,29.98,NE,40,1.0,1.0,94,0.00,,,0.00,Wunderground v.1.15,2013-04-27 16:49:00,
2013-04-27 12:50:00,55.1,53.7,29.97,NE,40,1.0,2.0,95,0.00,,,0.00,Wunderground v.1.15,2013-04-27 16:50:00,
2013-04-27 12:51:00,55.1,53.7,29.97,NNE,30,1.0,2.0,95,0.00,,,0.00,Wunderground v.1.15,2013-04-27 16:51:00,
2013-04-27 12:52:00,56.8,49.3,30.27,South,172,1.0,2.0,76,0.00,,,0.00,Wunderground v.1.15,2013-04-27 16:52:00,
2013-04-27 12:53:00,56.8,49.3,30.27,South,172,1.0,1.0,76,0.00,,,0.00,Wunderground v.1.15,2013-04-27 16:53:00,
2013-04-27 12:54:00,56.8,49.3,30.27,South,172,1.0,1.0,76,0.00,,,0.00,Wunderground v.1.15,2013-04-27 16:54:00,
2013-04-27 12:55:00,55.0,53.6,29.99,WSW,250,1.0,2.0,95,0.00,,,0.00,Wunderground v.1.15,2013-04-27 16:55:00,
2013-04-27 12:56:00,56.8,50.4,30.27,South,172,0.0,1.0,79,0.00,,,0.00,Wunderground v.1.15,2013-04-27 16:56:00,
2013-04-27 12:57:00,56.8,50.4,30.27,South,172,0.0,1.0,79,0.00,,,0.00,Wunderground v.1.15,2013-04-27 16:57:00,
2013-04-27 12:58:00,55.0,53.6,29.98,West,269,1.0,2.0,95,0.00,,,0.00,Wunderground v.1.15,2013-04-27 16:58:00,
2013-04-27 12:59:00,55.0,53.6,29.98,West,273,1.0,2.0,95,0.00,,,0.00,Wunderground v.1.15,2013-04-27 16:59:00,
2013-04-27 13:00:00,56.9,50.8,30.27,South,172,0.0,1.0,80,0.00,,,0.00,Wunderground v.1.15,2013-04-27 17:00:00,
2013-04-27 13:01:00,55.0,53.6,29.97,WNW,282,0.0,0.0,95,0.00,,,0.00,Wunderground v.1.15,2013-04-27 17:01:00,
2013-04-27 13:02:00,56.8,50.7,30.27,SSE,164,0.0,1.0,80,0.00,,,0.01,Wunderground v.1.15,2013-04-27 17:02:00,
2013-04-27 13:03:00,55.0,53.6,29.97,WNW,282,0.0,0.0,95,0.00,,,0.00,Wunderground v.1.15,2013-04-27 17:03:00,
2013-04-27 13:04:00,56.7,50.9,30.27,SSE,164,0.0,2.0,81,0.00,,,0.01,Wunderground v.1.15,2013-04-27 17:04:00,
2013-04-27 13:05:00,56.7,50.9,30.27,SSE,164,0.0,2.0,81,0.00,,,0.01,Wunderground v.1.15,2013-04-27 17:05:00,
2013-04-27 13:06:00,56.7,51.3,30.27,SSE,164,1.0,2.0,82,0.00,,,0.01,Wunderground v.1.15,2013-04-27 17:06:00,
2013-04-27 13:07:00,55.0,53.6,29.97,WNW,283,0.0,1.0,95,0.00,,,0.00,Wunderground v.1.15,2013-04-27 17:07:00,
2013-04-27 13:08:00,55.0,53.6,29.97,WNW,283,0.0,1.0,95,0.00,,,0.00,Wunderground v.1.15,2013-04-27 17:08:00,
2013-04-27 13:09:00,55.0,53.6,29.97,WNW,283,0.0,1.0,95,0.00,,,0.00,Wunderground v.1.15,2013-04-27 17:09:00,
2013-04-27 13:10:00,55.0,53.6,29.98,WNW,283,0.0,0.0,95,0.00,,,0.00,Wunderground v.1.15,2013-04-27 17:10:00,
2013-04-27 13:11:00,56.2,51.7,30.26,SSE,164,0.0,2.0,85,0.00,,,0.01,Wunderground v.1.15,2013-04-27 17:11:00,
2013-04-27 13:12:00,56.2,51.7,30.26,SSE,163,0.0,2.0,85,0.00,,,0.01,Wunderground v.1.15,2013-04-27 17:12:00,
2013-04-27 13:13:00,56.1,51.7,30.26,SSE,163,0.0,0.0,85,0.00,,,0.01,Wunderground v.1.15,2013-04-27 17:13:00,
2013-04-27 13:14:00,56.0,51.6,30.26,SSE,155,0.0,2.0,85,0.05,,,0.02,Wunderground v.1.15,2013-04-27 17:14:00,
2013-04-27 13:15:00,55.0,53.6,29.97,WNW,283,0.0,0.0,95,0.00,,,0.00,Wunderground v.1.15,2013-04-27 17:15:00,
2013-04-27 13:16:00,55.0,53.6,29.97,WNW,283,0.0,0.0,95,0.00,,,0.00,Wunderground v.1.15,2013-04-27 17:16:00,
2013-04-27 13:17:00,56.0,51.9,30.26,SSE,155,1.0,2.0,86,0.05,,,0.02,Wunderground v.1.15,2013-04-27 17:17:00,
2013-04-27 13:18:00,55.9,51.8,30.26,SSE,155,1.0,2.0,86,0.05,,,0.02,Wunderground v.1.15,2013-04-27 17:18:00,
2013-04-27 13:19:00,55.0,53.6,29.97,WNW,283,0.0,1.0,95,0.00,,,0.00,Wunderground v.1.15,2013-04-27 17:19:00,
2013-04-27 13:20:00,55.0,53.6,29.97,WNW,283,0.0,0.0,95,0.00,,,0.00,Wunderground v.1.15,2013-04-27 17:20:00,
2013-04-27 13:21:00,55.9,52.1,30.26,SSE,155,1.0,2.0,87,0.05,,,0.02,Wunderground v.1.15,2013-04-27 17:21:00,
2013-04-27 13:22:00,56.0,52.5,30.25,SSE,155,1.0,2.0,88,0.05,,,0.02,Wunderground v.1.15,2013-04-27 17:22:00,
2013-04-27 13:23:00,55.0,53.6,29.97,WNW,283,0.0,0.0,95,0.00,,,0.00,Wunderground v.1.15,2013-04-27 17:23:00,
2013-04-27 13:24:00,56.0,52.5,30.25,SE,127,0.0,1.0,88,0.05,,,0.02,Wunderground v.1.15,2013-04-27 17:24:00,
2013-04-27 13:25:00,54.9,53.5,29.96,WNW,282,0.0,1.0,95,0.00,,,0.00,Wunderground v.1.15,2013-04-27 17:25:00,
2013-04-27 13:26:00,56.0,52.5,30.25,SE,142,0.0,1.0,88,0.05,,,0.02,Wunderground v.1.15,2013-04-27 17:26:00,
2013-04-27 13:27:00,54.9,53.5,29.96,WNW,283,0.0,1.0,95,0.00,,,0.00,Wunderground v.1.15,2013-04-27 17:27:00,
2013-04-27 13:28:00,54.9,53.5,29.96,WNW,283,0.0,1.0,95,0.00,,,0.00,Wunderground v.1.15,2013-04-27 17:28:00,
2013-04-27 13:29:00,54.9,53.5,29.96,WNW,283,0.0,1.0,95,0.00,,,0.00,Wunderground v.1.15,2013-04-27 17:29:00,
2013-04-27 13:31:00,56.1,52.6,30.25,SSE,155,1.0,3.0,88,0.04,,,0.02,Wunderground v.1.15,2013-04-27 17:31:00,
2013-04-27 13:32:00,56.2,53.0,30.24,SSE,150,1.0,3.0,89,0.00,,,0.02,Wunderground v.1.15,2013-04-27 17:32:00,
2013-04-27 13:33:00,54.8,53.4,29.96,WNW,282,0.0,0.0,95,0.00,,,0.00,Wunderground v.1.15,2013-04-27 17:33:00,
2013-04-27 13:34:00,54.8,53.4,29.96,WNW,283,0.0,0.0,95,0.00,,,0.00,Wunderground v.1.15,2013-04-27 17:34:00,
2013-04-27 13:35:00,56.3,53.1,30.24,South,191,2.0,3.0,89,0.00,,,0.02,Wunderground v.1.15,2013-04-27 17:35:00,
2013-04-27 13:37:00,56.6,53.4,30.24,SE,140,1.0,3.0,89,0.00,,,0.02,Wunderground v.1.15,2013-04-27 17:37:00,
2013-04-27 13:38:00,54.8,53.4,29.96,WNW,283,0.0,0.0,95,0.00,,,0.00,Wunderground v.1.15,2013-04-27 17:38:00,
2013-04-27 13:39:00,56.7,53.5,30.24,SE,140,1.0,3.0,89,0.00,,,0.02,Wunderground v.1.15,2013-04-27 17:39:00,
2013-04-27 13:40:00,56.8,53.6,30.24,SSE,153,1.0,3.0,89,0.00,,,0.02,Wunderground v.1.15,2013-04-27 17:40:00,
2013-04-27 13:41:00,56.9,53.7,30.24,SSE,153,1.0,3.0,89,0.00,,,0.02,Wunderground v.1.15,2013-04-27 17:41:00,
2013-04-27 13:43:00,54.7,53.3,29.96,WNW,282,0.0,0.0,95,0.00,,,0.00,Wunderground v.1.15,2013-04-27 17:43:00,
2013-04-27 13:44:00,57.1,53.9,30.23,South,179,1.0,1.0,89,0.00,,,0.02,Wunderground v.1.15,2013-04-27 17:44:00,
2013-04-27 13:45:00,57.1,53.9,30.23,SSE,168,1.0,2.0,89,0.00,,,0.02,Wunderground v.1.15,2013-04-27 17:45:00,
2013-04-27 13:46:00,57.1,53.9,30.23,SE,130,1.0,4.0,89,0.00,,,0.02,Wunderground v.1.15,2013-04-27 17:46:00,
2013-04-27 13:47:00,54.6,53.2,29.95,WNW,282,0.0,0.0,95,0.00,,,0.00,Wunderground v.1.15,2013-04-27 17:47:00,
2013-04-27 13:48:00,54.6,53.2,29.95,WNW,282,0.0,0.0,95,0.00,,,0.00,Wunderground v.1.15,2013-04-27 17:48:00,
2013-04-27 13:49:00,57.1,53.9,30.23,SSE,159,1.0,4.0,89,0.00,,,0.02,Wunderground v.1.15,2013-04-27 17:49:00,
2013-04-27 13:50:00,57.1,53.9,30.23,SSE,159,1.0,4.0,89,0.00,,,0.02,Wunderground v.1.15,2013-04-27 17:50:00,
2013-04-27 13:51:00,57.2,54.0,30.23,SSE,150,1.0,4.0,89,0.00,,,0.02,Wunderground v.1.15,2013-04-27 17:51:00,
2013-04-27 13:54:00,54.7,53.3,29.95,WNW,282,0.0,0.0,95,0.00,,,0.00,Wunderground v.1.15,2013-04-27 17:54:00,
2013-04-27 13:55:00,57.2,54.0,30.23,SSW,193,2.0,4.0,89,0.00,,,0.02,Wunderground v.1.15,2013-04-27 17:55:00,
2013-04-27 13:56:00,54.6,53.2,29.95,WNW,282,0.0,0.0,95,0.00,,,0.00,Wunderground v.1.15,2013-04-27 17:56:00,
2013-04-27 13:57:00,57.2,53.7,30.22,SE,127,2.0,4.0,88,0.00,,,0.02,Wunderground v.1.15,2013-04-27 17:57:00,
2013-04-27 13:58:00,57.2,54.0,30.22,SE,127,1.0,4.0,89,0.00,,,0.02,Wunderground v.1.15,2013-04-27 17:58:00,
2013-04-27 13:59:00,57.3,54.1,30.22,SE,139,1.0,4.0,89,0.00,,,0.02,Wunderground v.1.15,2013-04-27 17:59:00,
2013-04-27 14:00:00,57.3,54.1,30.22,SE,137,2.0,4.0,89,0.00,,,0.02,Wunderground v.1.15,2013-04-27 18:00:00,
2013-04-27 14:03:00,57.4,54.2,30.22,SSW,209,1.0,1.0,89,0.00,,,0.02,Wunderground v.1.15,2013-04-27 18:03:00,
2013-04-27 14:04:00,57.4,54.2,30.22,West,265,1.0,3.0,89,0.00,,,0.02,Wunderground v.1.15,2013-04-27 18:04:00,
2013-04-27 14:06:00,57.4,54.2,30.22,South,189,1.0,3.0,89,0.00,,,0.02,Wunderground v.1.15,2013-04-27 18:06:00,
2013-04-27 14:08:00,57.3,53.8,30.21,SE,128,2.0,5.0,88,0.00,,,0.02,Wunderground v.1.15,2013-04-27 18:08:00,
2013-04-27 14:09:00,57.3,53.8,30.21,SE,132,2.0,5.0,88,0.00,,,0.02,Wunderground v.1.15,2013-04-27 18:09:00,
2013-04-27 14:11:00,57.3,53.8,30.21,ESE,119,2.0,5.0,88,0.00,,,0.02,Wunderground v.1.15,2013-04-27 18:11:00,
2013-04-27 14:12:00,54.8,53.4,29.96,WNW,283,0.0,0.0,95,0.00,,,0.00,Wunderground v.1.15,2013-04-27 18:12:00,
2013-04-27 14:13:00,57.3,54.1,30.20,ESE,122,2.0,2.0,89,0.00,,,0.02,Wunderground v.1.15,2013-04-27 18:13:00,
2013-04-27 14:14:00,57.4,54.2,30.20,ESE,122,2.0,2.0,89,0.00,,,0.02,Wunderground v.1.15,2013-04-27 18:14:00,
2013-04-27 14:15:00,54.8,53.4,29.96,WNW,283,0.0,0.0,95,0.00,,,0.00,Wunderground v.1.15,2013-04-27 18:15:00,
2013-04-27 14:16:00,54.8,53.4,29.96,WNW,283,0.0,0.0,95,0.00,,,0.00,Wunderground v.1.15,2013-04-27 18:16:00,
2013-04-27 14:18:00,57.3,53.8,30.20,East,83,2.0,2.0,88,0.00,,,0.02,Wunderground v.1.15,2013-04-27 18:18:00,
2013-04-27 14:19:00,54.9,53.5,29.96,WNW,282,0.0,0.0,95,0.00,,,0.00,Wunderground v.1.15,2013-04-27 18:19:00,
2013-04-27 14:20:00,57.3,53.8,30.19,SSE,159,2.0,4.0,88,0.00,,,0.02,Wunderground v.1.15,2013-04-27 18:20:00,
2013-04-27 14:22:00,57.4,53.9,30.19,ESE,114,2.0,4.0,88,0.00,,,0.02,Wunderground v.1.15,2013-04-27 18:22:00,
2013-04-27 14:23:00,54.9,53.5,29.96,WNW,282,0.0,0.0,95,0.00,,,0.00,Wunderground v.1.15,2013-04-27 18:23:00,
2013-04-27 14:24:00,57.3,53.8,30.19,ESE,118,2.0,3.0,88,0.00,,,0.02,Wunderground v.1.15,2013-04-27 18:24:00,
2013-04-27 14:25:00,57.3,53.8,30.19,SE,135,2.0,3.0,88,0.00,,,0.02,Wunderground v.1.15,2013-04-27 18:25:00,
2013-04-27 14:26:00,57.3,53.8,30.19,SE,130,2.0,3.0,88,0.00,,,0.02,Wunderground v.1.15,2013-04-27 18:26:00,
2013-04-27 14:28:00,54.9,53.5,29.96,WNW,283,0.0,0.0,95,0.00,,,0.00,Wunderground v.1.15,2013-04-27 18:28:00,
2013-04-27 14:30:00,57.4,53.9,30.19,ESE,110,2.0,3.0,88,0.00,,,0.02,Wunderground v.1.15,2013-04-27 18:30:00,
2013-04-27 14:31:00,57.4,53.9,30.18,SSE,165,2.0,3.0,88,0.00,,,0.02,Wunderground v.1.15,2013-04-27 18:31:00,
2013-04-27 14:32:00,54.8,53.4,29.96,WNW,283,0.0,0.0,95,0.00,,,0.00,Wunderground v.1.15,2013-04-27 18:32:00,
2013-04-27 14:36:00,57.6,54.1,30.17,ESE,121,2.0,5.0,88,0.00,,,0.02,Wunderground v.1.15,2013-04-27 18:36:00,
2013-04-27 14:37:00,57.6,54.1,30.17,ESE,111,3.0,5.0,88,0.00,,,0.02,Wunderground v.1.15,2013-04-27 18:37:00,
2013-04-27 14:40:00,57.7,54.2,30.17,SE,133,2.0,5.0,88,0.00,,,0.02,Wunderground v.1.15,2013-04-27 18:40:00,
2013-04-27 14:41:00,57.7,53.9,30.17,East,88,2.0,5.0,87,0.00,,,0.02,Wunderground v.1.15,2013-04-27 18:41:00,
2013-04-27 14:42:00,54.5,53.1,29.95,WNW,283,0.0,0.0,95,0.00,,,0.00,Wunderground v.1.15,2013-04-27 18:42:00,
2013-04-27 14:43:00,54.5,53.1,29.95,WNW,283,0.0,0.0,95,0.00,,,0.00,Wunderground v.1.15,2013-04-27 18:43:00,
2013-04-27 14:45:00,57.8,54.0,30.17,SSE,148,2.0,6.0,87,0.00,,,0.02,Wunderground v.1.15,2013-04-27 18:45:00,
2013-04-27 14:46:00,57.9,53.7,30.18,SSE,156,2.0,6.0,86,0.00,,,0.02,Wunderground v.1.15,2013-04-27 18:46:00,
2013-04-27 14:47:00,57.9,54.1,30.18,SSW,194,2.0,6.0,87,0.00,,,0.02,Wunderground v.1.15,2013-04-27 18:47:00,
2013-04-27 14:49:00,54.3,52.9,29.95,WNW,283,0.0,0.0,95,0.00,,,0.00,Wunderground v.1.15,2013-04-27 18:49:00,
2013-04-27 14:50:00,58.1,53.9,30.19,ESE,121,2.0,6.0,86,0.00,,,0.02,Wunderground v.1.15,2013-04-27 18:50:00,
2013-04-27 14:51:00,54.2,52.8,29.95,WNW,283,0.0,0.0,95,0.00,,,0.00,Wunderground v.1.15,2013-04-27 18:51:00,
2013-04-27 14:52:00,58.1,53.9,30.19,East,100,2.0,6.0,86,0.00,,,0.02,Wunderground v.1.15,2013-04-27 18:52:00,
2013-04-27 14:55:00,58.3,54.1,30.19,East,81,2.0,5.0,86,0.00,,,0.02,Wunderground v.1.15,2013-04-27 18:55:00,
2013-04-27 14:56:00,58.3,54.1,30.19,ESE,109,2.0,5.0,86,0.00,,,0.02,Wunderground v.1.15,2013-04-27 18:56:00,
2013-04-27 14:58:00,58.4,54.2,30.19,ESE,112,2.0,5.0,86,0.00,,,0.02,Wunderground v.1.15,2013-04-27 18:58:00,
2013-04-27 14:59:00,58.4,54.2,30.19,ESE,112,2.0,5.0,86,0.00,,,0.02,Wunderground v.1.15,2013-04-27 18:59:00,
2013-04-27 15:01:00,53.9,52.5,29.95,WNW,283,0.0,0.0,95,0.00,,,0.00,Wunderground v.1.15,2013-04-27 19:01:00,
2013-04-27 15:02:00,58.3,53.8,30.19,SE,135,2.0,6.0,85,0.00,,,0.02,Wunderground v.1.15,2013-04-27 19:02:00,
2013-04-27 15:04:00,58.3,53.8,30.19,SE,138,2.0,3.0,85,0.00,,,0.02,Wunderground v.1.15,2013-04-27 19:04:00,
2013-04-27 15:05:00,58.2,53.7,30.19,SSE,163,2.0,3.0,85,0.00,,,0.02,Wunderground v.1.15,2013-04-27 19:05:00,
2013-04-27 15:08:00,58.1,53.9,30.19,SE,146,1.0,3.0,86,0.00,,,0.02,Wunderground v.1.15,2013-04-27 19:08:00,
2013-04-27 15:09:00,58.1,53.9,30.19,SE,136,1.0,3.0,86,0.00,,,0.02,Wunderground v.1.15,2013-04-27 19:09:00,
2013-04-27 15:10:00,53.9,52.5,29.95,WNW,282,0.0,0.0,95,0.00,,,0.00,Wunderground v.1.15,2013-04-27 19:10:00,
2013-04-27 15:11:00,58.1,53.9,30.19,SSE,161,2.0,3.0,86,0.00,,,0.02,Wunderground v.1.15,2013-04-27 19:11:00,
2013-04-27 15:15:00,54.1,52.7,29.95,WNW,283,0.0,0.0,95,0.00,,,0.00,Wunderground v.1.15,2013-04-27 19:15:00,
2013-04-27 15:16:00,57.8,53.3,30.19,South,186,1.0,3.0,85,0.00,,,0.02,Wunderground v.1.15,2013-04-27 19:16:00,
2013-04-27 15:18:00,57.8,53.6,30.19,South,173,1.0,3.0,86,0.00,,,0.02,Wunderground v.1.15,2013-04-27 19:18:00,
2013-04-27 15:19:00,57.7,53.5,30.19,SSE,168,1.0,3.0,86,0.00,,,0.02,Wunderground v.1.15,2013-04-27 19:19:00,
2013-04-27 15:20:00,57.7,53.2,30.19,South,181,1.0,3.0,85,0.00,,,0.02,Wunderground v.1.15,2013-04-27 19:20:00,
2013-04-27 15:23:00,57.5,53.3,30.19,SE,136,1.0,1.0,86,0.00,,,0.02,Wunderground v.1.15,2013-04-27 19:23:00,
2013-04-27 15:24:00,57.5,53.3,30.19,SE,124,1.0,2.0,86,0.00,,,0.02,Wunderground v.1.15,2013-04-27 19:24:00,
2013-04-27 15:27:00,57.4,53.2,30.19,SE,125,1.0,5.0,86,0.00,,,0.02,Wunderground v.1.15,2013-04-27 19:27:00,
2013-04-27 15:28:00,57.3,53.1,30.19,SSE,153,2.0,5.0,86,0.00,,,0.02,Wunderground v.1.15,2013-04-27 19:28:00,
2013-04-27 15:30:00,57.3,53.1,30.19,SSE,153,1.0,5.0,86,0.00,,,0.02,Wunderground v.1.15,2013-04-27 19:30:00,
2013-04-27 15:31:00,57.3,53.1,30.19,SSE,148,1.0,5.0,86,0.00,,,0.02,Wunderground v.1.15,2013-04-27 19:31:00,
2013-04-27 15:32:00,57.2,53.0,30.19,ESE,108,1.0,5.0,86,0.00,,,0.02,Wunderground v.1.15,2013-04-27 19:32:00,
2013-04-27 15:34:00,57.2,53.0,30.19,ESE,108,1.0,1.0,86,0.00,,,0.02,Wunderground v.1.15,2013-04-27 19:34:00,
2013-04-27 15:36:00,57.1,53.0,30.19,South,171,1.0,2.0,86,0.00,,,0.02,Wunderground v.1.15,2013-04-27 19:36:00,
2013-04-27 15:39:00,57.1,53.0,30.19,South,171,1.0,2.0,86,0.00,,,0.02,Wunderground v.1.15,2013-04-27 19:39:00,
2013-04-27 15:40:00,57.1,53.0,30.19,SSW,209,1.0,2.0,86,0.00,,,0.02,Wunderground v.1.15,2013-04-27 19:40:00,
2013-04-27 15:41:00,57.0,52.9,30.19,South,169,1.0,2.0,86,0.00,,,0.02,Wunderground v.1.15,2013-04-27 19:41:00,
2013-04-27 15:43:00,57.0,52.9,30.19,South,188,1.0,1.0,86,0.00,,,0.02,Wunderground v.1.15,2013-04-27 19:43:00,
2013-04-27 15:45:00,56.9,52.8,30.19,South,188,1.0,1.0,86,0.00,,,0.02,Wunderground v.1.15,2013-04-27 19:45:00,
2013-04-27 15:47:00,57.0,52.9,30.19,South,188,1.0,1.0,86,0.00,,,0.02,Wunderground v.1.15,2013-04-27 19:47:00,
2013-04-27 15:48:00,56.9,53.1,30.19,South,187,1.0,1.0,87,0.00,,,0.02,Wunderground v.1.15,2013-04-27 19:48:00,
2013-04-27 15:54:00,56.8,53.0,30.19,SSE,160,1.0,1.0,87,0.00,,,0.02,Wunderground v.1.15,2013-04-27 19:54:00,
2013-04-27 15:56:00,56.8,52.7,30.18,SSE,160,1.0,1.0,86,0.00,,,0.02,Wunderground v.1.15,2013-04-27 19:56:00,
2013-04-27 15:59:00,56.8,53.0,30.18,SSE,160,1.0,1.0,87,0.00,,,0.02,Wunderground v.1.15,2013-04-27 19:59:00,
2013-04-27 16:01:00,56.8,53.0,30.18,ENE,57,1.0,1.0,87,0.00,,,0.02,Wunderground v.1.15,2013-04-27 20:01:00,
2013-04-27 16:03:00,56.8,53.0,30.18,SE,126,0.0,1.0,87,0.00,,,0.02,Wunderground v.1.15,2013-04-27 20:03:00,
2013-04-27 16:06:00,56.7,52.9,30.18,SE,126,0.0,1.0,87,0.00,,,0.02,Wunderground v.1.15,2013-04-27 20:06:00,
2013-04-27 16:07:00,56.7,52.9,30.18,SE,126,0.0,1.0,87,0.00,,,0.02,Wunderground v.1.15,2013-04-27 20:07:00,
2013-04-27 16:09:00,56.7,52.9,30.18,ESE,115,0.0,1.0,87,0.00,,,0.02,Wunderground v.1.15,2013-04-27 20:09:00,
2013-04-27 16:10:00,56.7,52.9,30.18,ESE,115,0.0,1.0,87,0.00,,,0.02,Wunderground v.1.15,2013-04-27 20:10:00,
2013-04-27 16:11:00,56.7,52.9,30.18,ESE,115,0.0,1.0,87,0.00,,,0.02,Wunderground v.1.15,2013-04-27 20:11:00,
2013-04-27 16:13:00,56.7,52.9,30.17,ESE,118,1.0,1.0,87,0.00,,,0.02,Wunderground v.1.15,2013-04-27 20:13:00,
2013-04-27 16:16:00,56.7,52.9,30.17,ESE,118,1.0,2.0,87,0.00,,,0.02,Wunderground v.1.15,2013-04-27 20:16:00,
2013-04-27 16:18:00,56.7,52.9,30.17,SSE,150,1.0,2.0,87,0.00,,,0.02,Wunderground v.1.15,2013-04-27 20:18:00,
2013-04-27 16:19:00,56.7,52.9,30.17,SSE,150,1.0,2.0,87,0.00,,,0.02,Wunderground v.1.15,2013-04-27 20:19:00,
2013-04-27 16:21:00,56.7,52.9,30.17,SSE,150,1.0,2.0,87,0.00,,,0.02,Wunderground v.1.15,2013-04-27 20:21:00,
2013-04-27 16:24:00,56.7,52.9,30.17,SSE,150,1.0,1.0,87,0.00,,,0.02,Wunderground v.1.15,2013-04-27 20:24:00,
2013-04-27 16:25:00,56.7,52.9,30.17,SSE,150,1.0,1.0,87,0.00,,,0.02,Wunderground v.1.15,2013-04-27 20:25:00,
2013-04-27 16:29:00,56.8,53.0,30.17,SSE,150,0.0,1.0,87,0.00,,,0.02,Wunderground v.1.15,2013-04-27 20:29:00,
2013-04-27 16:31:00,56.7,52.9,30.17,SSE,159,0.0,1.0,87,0.00,,,0.02,Wunderground v.1.15,2013-04-27 20:31:00,
2013-04-27 16:32:00,56.8,53.0,30.17,SSE,159,0.0,1.0,87,0.00,,,0.02,Wunderground v.1.15,2013-04-27 20:32:00,
2013-04-27 16:34:00,56.7,52.9,30.17,SSE,159,0.0,0.0,87,0.00,,,0.02,Wunderground v.1.15,2013-04-27 20:34:00,
2013-04-27 16:36:00,56.7,52.9,30.17,SSE,159,0.0,0.0,87,0.00,,,0.02,Wunderground v.1.15,2013-04-27 20:36:00,
2013-04-27 16:37:00,56.8,53.0,30.17,SSE,159,0.0,0.0,87,0.00,,,0.02,Wunderground v.1.15,2013-04-27 20:37:00,
2013-04-27 16:38:00,56.8,53.0,30.17,ESE,113,0.0,2.0,87,0.00,,,0.02,Wunderground v.1.15,2013-04-27 20:38:00,
2013-04-27 16:40:00,56.8,53.0,30.17,ESE,113,0.0,2.0,87,0.00,,,0.02,Wunderground v.1.15,2013-04-27 20:40:00,
2013-04-27 16:41:00,56.8,53.0,30.17,SSE,167,0.0,2.0,87,0.00,,,0.02,Wunderground v.1.15,2013-04-27 20:41:00,
2013-04-27 16:43:00,56.8,53.0,30.17,East,84,1.0,3.0,87,0.00,,,0.02,Wunderground v.1.15,2013-04-27 20:43:00,
2013-04-27 16:46:00,56.7,52.9,30.17,SE,129,1.0,1.0,87,0.00,,,0.02,Wunderground v.1.15,2013-04-27 20:46:00,
2013-04-27 16:47:00,56.7,52.9,30.17,SE,129,1.0,1.0,87,0.00,,,0.02,Wunderground v.1.15,2013-04-27 20:47:00,
2013-04-27 16:49:00,56.7,52.9,30.17,SE,129,1.0,1.0,87,0.00,,,0.02,Wunderground v.1.15,2013-04-27 20:49:00,
2013-04-27 16:50:00,56.7,52.9,30.17,SE,129,1.0,1.0,87,0.00,,,0.02,Wunderground v.1.15,2013-04-27 20:50:00,
2013-04-27 16:52:00,56.7,52.9,30.17,SE,129,1.0,1.0,87,0.00,,,0.02,Wunderground v.1.15,2013-04-27 20:52:00,
2013-04-27 16:53:00,56.7,52.9,30.16,SE,129,1.0,1.0,87,0.00,,,0.02,Wunderground v.1.15,2013-04-27 20:53:00,
2013-04-27 16:56:00,56.8,53.0,30.16,SE,129,1.0,1.0,87,0.00,,,0.02,Wunderground v.1.15,2013-04-27 20:56:00,
2013-04-27 16:58:00,56.7,52.9,30.16,SSE,166,0.0,1.0,87,0.00,,,0.02,Wunderground v.1.15,2013-04-27 20:58:00,
2013-04-27 17:01:00,56.7,52.9,30.16,SSE,157,1.0,2.0,87,0.00,,,0.02,Wunderground v.1.15,2013-04-27 21:01:00,
2013-04-27 17:04:00,56.8,53.0,30.16,SSE,155,1.0,2.0,87,0.00,,,0.02,Wunderground v.1.15,2013-04-27 21:04:00,
2013-04-27 17:05:00,56.7,52.9,30.16,SSE,154,1.0,2.0,87,0.00,,,0.02,Wunderground v.1.15,2013-04-27 21:05:00,
2013-04-27 17:09:00,56.8,53.0,30.16,SSE,154,1.0,2.0,87,0.00,,,0.02,Wunderground v.1.15,2013-04-27 21:09:00,
2013-04-27 17:11:00,56.8,53.3,30.16,SSE,154,1.0,2.0,88,0.00,,,0.02,Wunderground v.1.15,2013-04-27 21:11:00,
2013-04-27 17:13:00,56.8,53.3,30.16,SSE,154,1.0,1.0,88,0.00,,,0.02,Wunderground v.1.15,2013-04-27 21:13:00,
2013-04-27 17:16:00,56.8,53.0,30.15,SSE,154,0.0,2.0,87,0.00,,,0.02,Wunderground v.1.15,2013-04-27 21:16:00,
2013-04-27 17:17:00,56.8,53.0,30.15,SSE,154,0.0,2.0,87,0.00,,,0.02,Wunderground v.1.15,2013-04-27 21:17:00,
2013-04-27 17:20:00,56.8,53.3,30.15,SSE,154,1.0,2.0,88,0.00,,,0.02,Wunderground v.1.15,2013-04-27 21:20:00,
2013-04-27 17:23:00,56.8,53.3,30.15,SSE,154,1.0,1.0,88,0.00,,,0.02,Wunderground v.1.15,2013-04-27 21:23:00,
2013-04-27 17:24:00,56.8,53.3,30.15,SSE,154,1.0,1.0,88,0.00,,,0.02,Wunderground v.1.15,2013-04-27 21:24:00,
2013-04-27 17:25:00,56.8,53.3,30.15,ESE,113,1.0,1.0,88,0.00,,,0.02,Wunderground v.1.15,2013-04-27 21:25:00,
2013-04-27 17:27:00,56.8,53.3,30.15,ESE,113,1.0,1.0,88,0.00,,,0.02,Wunderground v.1.15,2013-04-27 21:27:00,
2013-04-27 17:29:00,56.7,53.2,30.15,ESE,113,1.0,1.0,88,0.00,,,0.02,Wunderground v.1.15,2013-04-27 21:29:00,
2013-04-27 17:32:00,56.7,53.2,30.15,East,84,1.0,3.0,88,0.00,,,0.02,Wunderground v.1.15,2013-04-27 21:32:00,
2013-04-27 17:34:00,56.6,53.1,30.15,East,88,1.0,1.0,88,0.00,,,0.02,Wunderground v.1.15,2013-04-27 21:34:00,
2013-04-27 17:35:00,56.6,53.1,30.15,East,88,1.0,1.0,88,0.00,,,0.02,Wunderground v.1.15,2013-04-27 21:35:00,
2013-04-27 17:38:00,56.6,53.1,30.15,East,88,1.0,1.0,88,0.00,,,0.02,Wunderground v.1.15,2013-04-27 21:38:00,
2013-04-27 17:41:00,56.6,53.4,30.14,East,88,1.0,1.0,89,0.00,,,0.02,Wunderground v.1.15,2013-04-27 21:41:00,
2013-04-27 17:44:00,56.6,53.4,30.14,East,88,0.0,2.0,89,0.00,,,0.02,Wunderground v.1.15,2013-04-27 21:44:00,
2013-04-27 17:48:00,56.5,53.3,30.14,East,88,0.0,2.0,89,0.00,,,0.02,Wunderground v.1.15,2013-04-27 21:48:00,
2013-04-27 17:50:00,56.5,53.0,30.14,East,88,1.0,3.0,88,0.00,,,0.02,Wunderground v.1.15,2013-04-27 21:50:00,
2013-04-27 17:53:00,56.4,53.2,30.14,East,98,1.0,2.0,89,0.00,,,0.02,Wunderground v.1.15,2013-04-27 21:53:00,
2013-04-27 17:54:00,56.5,53.3,30.14,East,98,1.0,2.0,89,0.00,,,0.02,Wunderground v.1.15,2013-04-27 21:54:00,
2013-04-27 17:58:00,56.5,53.0,30.14,East,98,1.0,2.0,88,0.00,,,0.02,Wunderground v.1.15,2013-04-27 21:58:00,
2013-04-27 18:00:00,56.5,53.0,30.14,East,98,1.0,2.0,88,0.00,,,0.02,Wunderground v.1.15,2013-04-27 22:00:00,
2013-04-27 18:01:00,56.5,53.0,30.14,East,90,1.0,3.0,88,0.00,,,0.02,Wunderground v.1.15,2013-04-27 22:01:00,
2013-04-27 18:03:00,56.5,53.0,30.14,ESE,103,1.0,3.0,88,0.00,,,0.02,Wunderground v.1.15,2013-04-27 22:03:00,
2013-04-27 18:05:00,56.5,53.0,30.13,ESE,104,1.0,2.0,88,0.00,,,0.02,Wunderground v.1.15,2013-04-27 22:05:00,
2013-04-27 18:07:00,56.5,53.3,30.13,ESE,104,1.0,2.0,89,0.00,,,0.02,Wunderground v.1.15,2013-04-27 22:07:00,
2013-04-27 18:08:00,56.6,53.1,30.13,ESE,104,1.0,2.0,88,0.00,,,0.02,Wunderground v.1.15,2013-04-27 22:08:00,
2013-04-27 18:10:00,56.6,53.1,30.13,ENE,77,1.0,3.0,88,0.00,,,0.02,Wunderground v.1.15,2013-04-27 22:10:00,
2013-04-27 18:13:00,56.6,53.4,30.12,ESE,109,1.0,3.0,89,0.00,,,0.02,Wunderground v.1.15,2013-04-27 22:13:00,
2013-04-27 18:15:00,56.6,53.1,30.12,ESE,109,1.0,3.0,88,0.00,,,0.02,Wunderground v.1.15,2013-04-27 22:15:00,
2013-04-27 18:16:00,56.6,53.1,30.12,ESE,113,2.0,3.0,88,0.00,,,0.02,Wunderground v.1.15,2013-04-27 22:16:00,
2013-04-27 18:21:00,56.5,53.0,30.12,ESE,102,2.0,3.0,88,0.00,,,0.02,Wunderground v.1.15,2013-04-27 22:21:00,
2013-04-27 18:22:00,56.5,53.0,30.12,ESE,102,2.0,3.0,88,0.00,,,0.02,Wunderground v.1.15,2013-04-27 22:22:00,
2013-04-27 18:25:00,56.5,53.0,30.12,SE,127,2.0,2.0,88,0.00,,,0.02,Wunderground v.1.15,2013-04-27 22:25:00,
2013-04-27 18:26:00,56.5,53.0,30.12,ESE,121,2.0,2.0,88,0.00,,,0.02,Wunderground v.1.15,2013-04-27 22:26:00,
2013-04-27 18:30:00,56.5,53.0,30.12,ESE,119,2.0,2.0,88,0.00,,,0.02,Wunderground v.1.15,2013-04-27 22:30:00,
2013-04-27 18:32:00,56.5,53.0,30.12,ESE,119,2.0,2.0,88,0.00,,,0.02,Wunderground v.1.15,2013-04-27 22:32:00,
2013-04-27 18:33:00,56.5,53.0,30.12,ENE,71,1.0,4.0,88,0.00,,,0.02,Wunderground v.1.15,2013-04-27 22:33:00,
2013-04-27 18:34:00,56.4,52.9,30.12,ENE,74,1.0,4.0,88,0.00,,,0.02,Wunderground v.1.15,2013-04-27 22:34:00,
2013-04-27 18:36:00,56.4,52.9,30.12,East,87,1.0,4.0,88,0.00,,,0.02,Wunderground v.1.15,2013-04-27 22:36:00,
2013-04-27 18:39:00,56.4,52.9,30.12,East,83,2.0,4.0,88,0.00,,,0.02,Wunderground v.1.15,2013-04-27 22:39:00,
2013-04-27 18:40:00,56.4,52.9,30.12,East,83,2.0,4.0,88,0.00,,,0.02,Wunderground v.1.15,2013-04-27 22:40:00,
2013-04-27 18:42:00,56.4,52.9,30.12,ESE,117,2.0,4.0,88,0.00,,,0.02,Wunderground v.1.15,2013-04-27 22:42:00,
2013-04-27 18:45:00,56.4,52.9,30.12,ESE,117,2.0,2.0,88,0.00,,,0.02,Wunderground v.1.15,2013-04-27 22:45:00,
2013-04-27 18:46:00,56.4,52.9,30.11,ESE,117,1.0,2.0,88,0.00,,,0.02,Wunderground v.1.15,2013-04-27 22:46:00,
2013-04-27 18:50:00,56.4,52.9,30.11,ESE,117,1.0,2.0,88,0.00,,,0.02,Wunderground v.1.15,2013-04-27 22:50:00,
2013-04-27 18:52:00,56.4,52.9,30.11,ESE,117,1.0,2.0,88,0.00,,,0.02,Wunderground v.1.15,2013-04-27 22:52:00,
2013-04-27 18:53:00,56.4,52.9,30.11,ESE,117,1.0,1.0,88,0.00,,,0.02,Wunderground v.1.15,2013-04-27 22:53:00,
2013-04-27 18:58:00,56.3,52.8,30.11,ESE,117,1.0,2.0,88,0.00,,,0.02,Wunderground v.1.15,2013-04-27 22:58:00,
2013-04-27 18:59:00,56.3,52.8,30.11,ESE,117,1.0,2.0,88,0.00,,,0.02,Wunderground v.1.15,2013-04-27 22:59:00,
2013-04-27 19:03:00,56.3,52.8,30.10,ESE,117,1.0,2.0,88,0.00,,,0.02,Wunderground v.1.15,2013-04-27 23:03:00,
2013-04-27 19:05:00,56.3,52.8,30.10,South,185,1.0,2.0,88,0.00,,,0.02,Wunderground v.1.15,2013-04-27 23:05:00,
2013-04-27 19:07:00,56.3,52.8,30.10,SSE,165,1.0,2.0,88,0.00,,,0.02,Wunderground v.1.15,2013-04-27 23:07:00,
2013-04-27 19:09:00,56.3,53.1,30.10,SSE,165,1.0,2.0,89,0.00,,,0.02,Wunderground v.1.15,2013-04-27 23:09:00,
2013-04-27 19:12:00,56.3,53.1,30.10,ESE,113,1.0,3.0,89,0.00,,,0.02,Wunderground v.1.15,2013-04-27 23:12:00,
2013-04-27 19:14:00,56.3,53.1,30.10,ESE,112,1.0,1.0,89,0.00,,,0.02,Wunderground v.1.15,2013-04-27 23:14:00,
2013-04-27 19:16:00,56.3,53.1,30.10,ESE,112,1.0,2.0,89,0.00,,,0.02,Wunderground v.1.15,2013-04-27 23:16:00,
2013-04-27 19:17:00,56.3,53.1,30.10,ESE,111,1.0,2.0,89,0.00,,,0.02,Wunderground v.1.15,2013-04-27 23:17:00,
2013-04-27 19:18:00,56.3,53.1,30.10,ESE,111,1.0,2.0,89,0.00,,,0.02,Wunderground v.1.15,2013-04-27 23:18:00,
2013-04-27 19:19:00,56.3,53.1,30.10,ESE,111,1.0,2.0,89,0.00,,,0.02,Wunderground v.1.15,2013-04-27 23:19:00,
2013-04-27 19:22:00,56.3,53.1,30.09,ESE,111,1.0,2.0,89,0.00,,,0.02,Wunderground v.1.15,2013-04-27 23:22:00,
2013-04-27 19:26:00,56.3,53.1,30.09,SSE,153,1.0,1.0,89,0.00,,,0.02,Wunderground v.1.15,2013-04-27 23:26:00,
2013-04-27 19:27:00,56.3,53.1,30.09,SSE,153,1.0,2.0,89,0.00,,,0.02,Wunderground v.1.15,2013-04-27 23:27:00,
2013-04-27 19:30:00,56.3,53.1,30.08,ESE,111,1.0,2.0,89,0.00,,,0.02,Wunderground v.1.15,2013-04-27 23:30:00,
2013-04-27 19:32:00,56.2,53.0,30.08,ESE,107,1.0,2.0,89,0.00,,,0.03,Wunderground v.1.15,2013-04-27 23:32:00,
2013-04-27 19:33:00,56.2,53.0,30.08,ESE,107,2.0,2.0,89,0.00,,,0.03,Wunderground v.1.15,2013-04-27 23:33:00,
2013-04-27 19:36:00,56.2,53.0,30.09,East,94,2.0,3.0,89,0.00,,,0.03,Wunderground v.1.15,2013-04-27 23:36:00,
2013-04-27 19:38:00,56.2,53.3,30.09,East,94,2.0,3.0,90,0.00,,,0.03,Wunderground v.1.15,2013-04-27 23:38:00,
2013-04-27 19:39:00,56.2,53.3,30.09,East,94,1.0,3.0,90,0.00,,,0.03,Wunderground v.1.15,2013-04-27 23:39:00,
2013-04-27 19:41:00,56.2,53.3,30.09,East,89,1.0,3.0,90,0.00,,,0.03,Wunderground v.1.15,2013-04-27 23:41:00,
2013-04-27 19:42:00,56.1,53.2,30.09,East,89,1.0,3.0,90,0.00,,,0.03,Wunderground v.1.15,2013-04-27 23:42:00,
2013-04-27 19:43:00,56.1,53.2,30.09,East,89,1.0,1.0,90,0.00,,,0.03,Wunderground v.1.15,2013-04-27 23:43:00,
2013-04-27 19:44:00,56.1,53.2,30.09,East,89,1.0,1.0,90,0.00,,,0.03,Wunderground v.1.15,2013-04-27 23:44:00,
2013-04-27 19:47:00,56.1,53.2,30.08,SE,124,1.0,1.0,90,0.00,,,0.03,Wunderground v.1.15,2013-04-27 23:47:00,
2013-04-27 19:49:00,56.0,53.1,30.08,SE,124,1.0,1.0,90,0.00,,,0.03,Wunderground v.1.15,2013-04-27 23:49:00,
2013-04-27 19:50:00,56.0,53.1,30.08,SE,124,1.0,1.0,90,0.00,,,0.03,Wunderground v.1.15,2013-04-27 23:50:00,
2013-04-27 19:51:00,56.0,53.1,30.08,ESE,123,1.0,1.0,90,0.00,,,0.03,Wunderground v.1.15,2013-04-27 23:51:00,
2013-04-27 19:54:00,55.9,53.3,30.08,ESE,123,1.0,1.0,91,0.00,,,0.03,Wunderground v.1.15,2013-04-27 23:54:00,
2013-04-27 19:55:00,55.9,53.3,30.08,ESE,123,1.0,1.0,91,0.00,,,0.03,Wunderground v.1.15,2013-04-27 23:55:00,
2013-04-27 19:58:00,55.9,53.3,30.08,ESE,123,0.0,1.0,91,0.00,,,0.03,Wunderground v.1.15,2013-04-27 23:58:00,
2013-04-27 20:03:00,55.8,53.2,30.08,ESE,123,0.0,0.0,91,0.00,,,0.03,Wunderground v.1.15,2013-04-28 00:03:00,
2013-04-27 20:05:00,55.8,53.2,30.08,ESE,123,0.0,0.0,91,0.00,,,0.03,Wunderground v.1.15,2013-04-28 00:05:00,
2013-04-27 20:06:00,55.8,53.2,30.08,ESE,123,0.0,0.0,91,0.00,,,0.03,Wunderground v.1.15,2013-04-28 00:06:00,
2013-04-27 20:07:00,55.8,53.2,30.08,ESE,123,0.0,0.0,91,0.00,,,0.03,Wunderground v.1.15,2013-04-28 00:07:00,
2013-04-27 20:08:00,55.8,53.2,30.08,ESE,123,0.0,0.0,91,0.00,,,0.03,Wunderground v.1.15,2013-04-28 00:08:00,
2013-04-27 20:12:00,55.8,53.2,30.09,ESE,123,0.0,1.0,91,0.00,,,0.03,Wunderground v.1.15,2013-04-28 00:12:00,
2013-04-27 20:15:00,55.7,53.1,30.09,ESE,123,0.0,0.0,91,0.00,,,0.03,Wunderground v.1.15,2013-04-28 00:15:00,
2013-04-27 20:16:00,55.8,53.2,30.09,ESE,123,0.0,0.0,91,0.00,,,0.03,Wunderground v.1.15,2013-04-28 00:16:00,
2013-04-27 20:18:00,55.7,53.1,30.08,ESE,123,0.0,1.0,91,0.00,,,0.03,Wunderground v.1.15,2013-04-28 00:18:00,
2013-04-27 20:19:00,55.7,53.4,30.08,ESE,123,0.0,2.0,92,0.00,,,0.03,Wunderground v.1.15,2013-04-28 00:19:00,
2013-04-27 20:22:00,55.7,53.4,30.08,ESE,123,1.0,2.0,92,0.00,,,0.03,Wunderground v.1.15,2013-04-28 00:22:00,
2013-04-27 20:23:00,55.7,53.4,30.08,ESE,119,1.0,2.0,92,0.00,,,0.03,Wunderground v.1.15,2013-04-28 00:23:00,
2013-04-27 20:25:00,55.7,53.4,30.08,ESE,119,1.0,2.0,92,0.00,,,0.03,Wunderground v.1.15,2013-04-28 00:25:00,
2013-04-27 20:27:00,55.7,53.4,30.08,ESE,119,1.0,2.0,92,0.00,,,0.03,Wunderground v.1.15,2013-04-28 00:27:00,
2013-04-27 20:29:00,55.7,53.4,30.08,ESE,119,1.0,2.0,92,0.00,,,0.03,Wunderground v.1.15,2013-04-28 00:29:00,
2013-04-27 20:31:00,55.7,53.4,30.08,ESE,119,1.0,2.0,92,0.00,,,0.03,Wunderground v.1.15,2013-04-28 00:31:00,
2013-04-27 20:33:00,55.7,53.4,30.08,ESE,116,1.0,2.0,92,0.00,,,0.03,Wunderground v.1.15,2013-04-28 00:33:00,
2013-04-27 20:34:00,55.7,53.4,30.08,ESE,116,1.0,2.0,92,0.00,,,0.03,Wunderground v.1.15,2013-04-28 00:34:00,
2013-04-27 20:35:00,55.7,53.4,30.08,ESE,116,1.0,2.0,92,0.00,,,0.03,Wunderground v.1.15,2013-04-28 00:35:00,
2013-04-27 20:36:00,55.7,53.4,30.08,ESE,116,1.0,2.0,92,0.00,,,0.03,Wunderground v.1.15,2013-04-28 00:36:00,
2013-04-27 20:38:00,55.7,53.4,30.07,ESE,116,1.0,2.0,92,0.00,,,0.03,Wunderground v.1.15,2013-04-28 00:38:00,
2013-04-27 20:40:00,55.7,53.4,30.07,ESE,115,1.0,3.0,92,0.00,,,0.03,Wunderground v.1.15,2013-04-28 00:40:00,
2013-04-27 20:43:00,55.7,53.4,30.07,ESE,115,1.0,3.0,92,0.00,,,0.03,Wunderground v.1.15,2013-04-28 00:43:00,
2013-04-27 20:45:00,55.7,53.4,30.06,ENE,74,2.0,3.0,92,0.00,,,0.04,Wunderground v.1.15,2013-04-28 00:45:00,
2013-04-27 20:46:00,55.7,53.4,30.06,SE,129,2.0,3.0,92,0.00,,,0.04,Wunderground v.1.15,2013-04-28 00:46:00,
2013-04-27 20:48:00,55.7,53.4,30.05,East,101,2.0,4.0,92,0.19,,,0.05,Wunderground v.1.15,2013-04-28 00:48:00,
2013-04-27 20:51:00,55.7,53.7,30.05,East,90,2.0,4.0,93,0.13,,,0.05,Wunderground v.1.15,2013-04-28 00:51:00,
2013-04-27 20:52:00,55.7,53.7,30.06,East,89,2.0,4.0,93,0.10,,,0.05,Wunderground v.1.15,2013-04-28 00:52:00,
2013-04-27 20:53:00,55.7,53.4,30.06,East,90,2.0,2.0,92,0.09,,,0.05,Wunderground v.1.15,2013-04-28 00:53:00,
2013-04-27 20:57:00,55.6,53.3,30.06,ENE,68,2.0,2.0,92,0.09,,,0.06,Wunderground v.1.15,2013-04-28 00:57:00,
2013-04-27 21:00:00,55.6,53.6,30.07,ENE,68,1.0,2.0,93,0.08,,,0.06,Wunderground v.1.15,2013-04-28 01:00:00,
2013-04-27 21:02:00,55.6,53.6,30.07,ENE,68,1.0,2.0,93,0.07,,,0.07,Wunderground v.1.15,2013-04-28 01:02:00,
2013-04-27 21:03:00,55.6,53.6,30.07,ENE,71,1.0,1.0,93,0.07,,,0.07,Wunderground v.1.15,2013-04-28 01:03:00,
2013-04-27 21:05:00,55.6,53.6,30.06,SE,134,1.0,2.0,93,0.07,,,0.07,Wunderground v.1.15,2013-04-28 01:05:00,
2013-04-27 21:09:00,55.5,53.5,30.06,East,86,1.0,3.0,93,0.07,,,0.07,Wunderground v.1.15,2013-04-28 01:09:00,
2013-04-27 21:10:00,55.5,53.5,30.06,East,91,1.0,3.0,93,0.07,,,0.07,Wunderground v.1.15,2013-04-28 01:10:00,
2013-04-27 21:11:00,55.5,53.5,30.05,East,88,1.0,3.0,93,0.06,,,0.07,Wunderground v.1.15,2013-04-28 01:11:00,
2013-04-27 21:12:00,55.5,53.5,30.05,East,88,1.0,3.0,93,0.06,,,0.07,Wunderground v.1.15,2013-04-28 01:12:00,
2013-04-27 21:17:00,55.5,53.5,30.06,East,101,1.0,2.0,93,0.04,,,0.07,Wunderground v.1.15,2013-04-28 01:17:00,
2013-04-27 21:19:00,55.5,53.5,30.06,East,101,1.0,2.0,93,0.04,,,0.07,Wunderground v.1.15,2013-04-28 01:19:00,
2013-04-27 21:21:00,55.5,53.5,30.06,East,101,1.0,3.0,93,0.00,,,0.08,Wunderground v.1.15,2013-04-28 01:21:00,
2013-04-27 21:22:00,55.5,53.5,30.05,East,101,1.0,3.0,93,0.00,,,0.08,Wunderground v.1.15,2013-04-28 01:22:00,
2013-04-27 21:24:00,55.5,53.5,30.05,East,101,1.0,1.0,93,0.00,,,0.08,Wunderground v.1.15,2013-04-28 01:24:00,
2013-04-27 21:25:00,55.5,53.5,30.05,East,98,1.0,3.0,93,0.00,,,0.08,Wunderground v.1.15,2013-04-28 01:25:00,
2013-04-27 21:27:00,55.5,53.5,30.05,ESE,119,1.0,3.0,93,0.00,,,0.08,Wunderground v.1.15,2013-04-28 01:27:00,
2013-04-27 21:28:00,55.5,53.5,30.05,ESE,119,1.0,3.0,93,0.00,,,0.08,Wunderground v.1.15,2013-04-28 01:28:00,
2013-04-27 21:31:00,55.4,53.4,30.04,ENE,58,2.0,4.0,93,0.00,,,0.08,Wunderground v.1.15,2013-04-28 01:31:00,
2013-04-27 21:33:00,55.4,53.4,30.04,South,170,2.0,4.0,93,0.00,,,0.08,Wunderground v.1.15,2013-04-28 01:33:00,
2013-04-27 21:36:00,55.4,53.4,30.05,ENE,70,2.0,4.0,93,0.00,,,0.08,Wunderground v.1.15,2013-04-28 01:36:00,
2013-04-27 21:39:00,55.4,53.4,30.05,ESE,105,2.0,4.0,93,0.00,,,0.08,Wunderground v.1.15,2013-04-28 01:39:00,
2013-04-27 21:41:00,55.4,53.4,30.05,ESE,106,2.0,4.0,93,0.00,,,0.08,Wunderground v.1.15,2013-04-28 01:41:00,
2013-04-27 21:44:00,55.4,53.4,30.05,SE,137,2.0,3.0,93,0.00,,,0.08,Wunderground v.1.15,2013-04-28 01:44:00,
2013-04-27 21:45:00,55.4,53.4,30.05,ESE,103,2.0,3.0,93,0.00,,,0.08,Wunderground v.1.15,2013-04-28 01:45:00,
2013-04-27 21:46:00,55.4,53.4,30.05,SE,140,2.0,3.0,93,0.00,,,0.08,Wunderground v.1.15,2013-04-28 01:46:00,
2013-04-27 21:47:00,55.4,53.4,30.05,East,97,2.0,3.0,93,0.00,,,0.08,Wunderground v.1.15,2013-04-28 01:47:00,
2013-04-27 21:50:00,55.4,53.4,30.05,East,97,2.0,3.0,93,0.00,,,0.08,Wunderground v.1.15,2013-04-28 01:50:00,
2013-04-27 21:51:00,55.4,53.4,30.05,East,97,1.0,3.0,93,0.00,,,0.08,Wunderground v.1.15,2013-04-28 01:51:00,
2013-04-27 21:53:00,55.4,53.4,30.05,ENE,75,1.0,3.0,93,0.00,,,0.08,Wunderground v.1.15,2013-04-28 01:53:00,
2013-04-27 21:57:00,55.3,53.3,30.05,East,89,1.0,2.0,93,0.00,,,0.08,Wunderground v.1.15,2013-04-28 01:57:00,
2013-04-27 21:58:00,55.3,53.3,30.05,East,92,1.0,2.0,93,0.00,,,0.08,Wunderground v.1.15,2013-04-28 01:58:00,
2013-04-27 22:00:00,55.3,53.3,30.05,ENE,76,1.0,5.0,93,0.00,,,0.09,Wunderground v.1.15,2013-04-28 02:00:00,
2013-04-27 22:01:00,55.3,53.3,30.05,South,178,1.0,5.0,93,0.00,,,0.09,Wunderground v.1.15,2013-04-28 02:01:00,
2013-04-27 22:03:00,55.3,53.3,30.05,ESE,102,2.0,2.0,93,0.00,,,0.09,Wunderground v.1.15,2013-04-28 02:03:00,
2013-04-27 22:05:00,55.3,53.3,30.05,East,97,2.0,2.0,93,0.00,,,0.09,Wunderground v.1.15,2013-04-28 02:05:00,
2013-04-27 22:06:00,55.3,53.3,30.05,East,97,2.0,2.0,93,0.00,,,0.09,Wunderground v.1.15,2013-04-28 02:06:00,
2013-04-27 22:07:00,55.3,53.3,30.05,North,360,2.0,2.0,93,0.00,,,0.09,Wunderground v.1.15,2013-04-28 02:07:00,
2013-04-27 22:09:00,55.3,53.3,30.05,East,84,1.0,2.0,93,0.00,,,0.09,Wunderground v.1.15,2013-04-28 02:09:00,
2013-04-27 22:12:00,55.2,53.2,30.06,East,84,1.0,2.0,93,0.00,,,0.09,Wunderground v.1.15,2013-04-28 02:12:00,
2013-04-27 22:13:00,55.3,53.3,30.06,East,84,1.0,1.0,93,0.00,,,0.09,Wunderground v.1.15,2013-04-28 02:13:00,
2013-04-27 22:15:00,55.2,53.2,30.06,East,84,0.0,1.0,93,0.00,,,0.09,Wunderground v.1.15,2013-04-28 02:15:00,
2013-04-27 22:16:00,55.2,53.2,30.05,East,84,0.0,2.0,93,0.00,,,0.09,Wunderground v.1.15,2013-04-28 02:16:00,
2013-04-27 22:17:00,55.2,53.2,30.05,East,84,0.0,2.0,93,0.00,,,0.09,Wunderground v.1.15,2013-04-28 02:17:00,
2013-04-27 22:22:00,55.2,53.2,30.05,SE,128,1.0,2.0,93,0.00,,,0.09,Wunderground v.1.15,2013-04-28 02:22:00,
2013-04-27 22:23:00,55.2,53.2,30.05,ESE,113,1.0,1.0,93,0.00,,,0.09,Wunderground v.1.15,2013-04-28 02:23:00,
2013-04-27 22:24:00,55.2,53.2,30.05,ESE,118,1.0,1.0,93,0.00,,,0.09,Wunderground v.1.15,2013-04-28 02:24:00,
2013-04-27 22:25:00,55.2,53.2,30.04,ESE,112,1.0,1.0,93,0.00,,,0.09,Wunderground v.1.15,2013-04-28 02:25:00,
2013-04-27 22:28:00,55.1,53.1,30.04,SE,126,1.0,3.0,93,0.00,,,0.09,Wunderground v.1.15,2013-04-28 02:28:00,
2013-04-27 22:29:00,55.1,53.1,30.04,SE,126,1.0,3.0,93,0.00,,,0.09,Wunderground v.1.15,2013-04-28 02:29:00,
2013-04-27 22:34:00,55.1,53.1,30.03,ESE,120,1.0,1.0,93,0.00,,,0.09,Wunderground v.1.15,2013-04-28 02:34:00,
2013-04-27 22:37:00,55.1,53.1,30.03,ESE,115,1.0,2.0,93,0.00,,,0.09,Wunderground v.1.15,2013-04-28 02:37:00,
2013-04-27 22:38:00,55.1,53.1,30.03,ESE,115,1.0,2.0,93,0.00,,,0.09,Wunderground v.1.15,2013-04-28 02:38:00,
2013-04-27 22:40:00,55.1,53.1,30.04,ESE,115,1.0,2.0,93,0.00,,,0.09,Wunderground v.1.15,2013-04-28 02:40:00,
2013-04-27 22:43:00,55.0,53.0,30.04,ESE,115,0.0,0.0,93,0.00,,,0.09,Wunderground v.1.15,2013-04-28 02:43:00,
2013-04-27 22:44:00,55.0,53.0,30.04,ESE,115,0.0,0.0,93,0.00,,,0.09,Wunderground v.1.15,2013-04-28 02:44:00,
2013-04-27 22:50:00,55.0,53.0,30.04,SE,132,0.0,1.0,93,0.00,,,0.09,Wunderground v.1.15,2013-04-28 02:50:00,
2013-04-27 22:51:00,55.0,53.0,30.04,SE,132,0.0,1.0,93,0.00,,,0.09,Wunderground v.1.15,2013-04-28 02:51:00,
2013-04-27 22:52:00,55.0,53.0,30.04,SE,132,0.0,1.0,93,0.00,,,0.09,Wunderground v.1.15,2013-04-28 02:52:00,
2013-04-27 22:54:00,55.0,53.0,30.04,SE,132,0.0,0.0,93,0.00,,,0.09,Wunderground v.1.15,2013-04-28 02:54:00,
2013-04-27 22:59:00,55.0,53.3,30.03,SE,132,0.0,1.0,94,0.00,,,0.09,Wunderground v.1.15,2013-04-28 02:59:00,
2013-04-27 23:01:00,55.0,53.3,30.03,SE,132,0.0,1.0,94,0.00,,,0.09,Wunderground v.1.15,2013-04-28 03:01:00,
2013-04-27 23:03:00,55.1,53.4,30.03,SE,132,0.0,1.0,94,0.00,,,0.09,Wunderground v.1.15,2013-04-28 03:03:00,
2013-04-27 23:04:00,55.1,53.4,30.02,SE,132,1.0,1.0,94,0.00,,,0.09,Wunderground v.1.15,2013-04-28 03:04:00,
2013-04-27 23:10:00,55.1,53.4,30.01,SE,132,1.0,2.0,94,0.00,,,0.09,Wunderground v.1.15,2013-04-28 03:10:00,
2013-04-27 23:11:00,55.1,53.4,30.00,East,99,1.0,2.0,94,0.00,,,0.09,Wunderground v.1.15,2013-04-28 03:11:00,
2013-04-27 23:16:00,55.1,53.4,30.00,East,88,2.0,3.0,94,0.00,,,0.09,Wunderground v.1.15,2013-04-28 03:16:00,
2013-04-27 23:19:00,55.1,53.4,29.99,ESE,108,2.0,3.0,94,0.00,,,0.09,Wunderground v.1.15,2013-04-28 03:19:00,
2013-04-27 23:23:00,55.2,53.5,29.99,ENE,76,2.0,2.0,94,0.00,,,0.09,Wunderground v.1.15,2013-04-28 03:23:00,
2013-04-27 23:24:00,55.2,53.5,29.99,ENE,76,2.0,3.0,94,0.00,,,0.09,Wunderground v.1.15,2013-04-28 03:24:00,
2013-04-27 23:25:00,55.2,53.5,29.99,East,96,2.0,3.0,94,0.00,,,0.09,Wunderground v.1.15,2013-04-28 03:25:00,
2013-04-27 23:27:00,55.2,53.5,29.98,ESE,105,1.0,3.0,94,0.00,,,0.09,Wunderground v.1.15,2013-04-28 03:27:00,
2013-04-27 23:31:00,55.3,53.6,29.98,ENE,59,2.0,3.0,94,0.00,,,0.09,Wunderground v.1.15,2013-04-28 03:31:00,
2013-04-27 23:32:00,55.3,53.6,29.98,East,93,2.0,3.0,94,0.00,,,0.10,Wunderground v.1.15,2013-04-28 03:32:00,
2013-04-27 23:36:00,55.3,53.6,29.99,NNE,28,2.0,2.0,94,0.00,,,0.10,Wunderground v.1.15,2013-04-28 03:36:00,
2013-04-27 23:38:00,55.3,53.6,29.99,NNE,26,1.0,2.0,94,0.00,,,0.10,Wunderground v.1.15,2013-04-28 03:38:00,
2013-04-27 23:39:00,55.3,53.6,30.00,NNE,26,1.0,2.0,94,0.00,,,0.10,Wunderground v.1.15,2013-04-28 03:39:00,
2013-04-27 23:41:00,55.3,53.6,30.01,NW,323,1.0,3.0,94,0.00,,,0.10,Wunderground v.1.15,2013-04-28 03:41:00,
2013-04-27 23:43:00,55.3,53.6,30.01,West,276,1.0,1.0,94,0.00,,,0.10,Wunderground v.1.15,2013-04-28 03:43:00,
2013-04-27 23:47:00,55.3,53.6,30.02,WNW,294,2.0,3.0,94,0.00,,,0.10,Wunderground v.1.15,2013-04-28 03:47:00,
2013-04-27 23:48:00,55.3,53.6,30.02,WNW,301,2.0,3.0,94,0.00,,,0.10,Wunderground v.1.15,2013-04-28 03:48:00,
2013-04-27 23:49:00,55.3,53.6,30.02,WNW,298,2.0,3.0,94,0.00,,,0.10,Wunderground v.1.15,2013-04-28 03:49:00,
2013-04-27 23:50:00,55.3,53.6,30.02,West,272,2.0,3.0,94,0.00,,,0.10,Wunderground v.1.15,2013-04-28 03:50:00,
2013-04-27 23:52:00,55.3,53.6,30.02,NE,50,2.0,3.0,94,0.00,,,0.10,Wunderground v.1.15,2013-04-28 03:52:00,
2013-04-27 23:57:00,55.2,53.5,30.01,ENE,58,1.0,2.0,94,0.00,,,0.10,Wunderground v.1.15,2013-04-28 03:57:00,
2013-04-27 23:59:00,55.2,53.5,30.00,ENE,58,1.0,3.0,94,0.00,,,0.11,Wunderground v.1.15,2013-04-28 03:59:00,